ECMWFNIL_925_spd_000.txt.gz
Wind_Speed
14 14 13 12 11 10 10 9 8 7 7 7 7 6 6 7 7 7 8 9 10 11 11 12 12 13 13 13 14 14 15 16 17 18 18 19 19 19 19 20 23 25
15 14 13 12 12 11 10 10 9 8 8 8 8 7 7 7 7 8 9 9 10 10 11 11 12 13 14 14 14 14 14 16 17 18 19 20 20 20 20 20 22 24
16 15 14 13 12 12 11 11 10 9 9 8 8 8 8 8 8 8 8 9 10 11 11 12 12 13 14 14 14 14 14 15 16 17 19 20 20 20 21 22 23 24
16 16 15 14 13 12 12 11 10 9 9 8 8 8 8 8 8 8 10 10 11 12 12 12 13 14 14 15 14 15 15 16 16 16 18 20 20 20 21 22 24 25
17 17 16 15 14 13 13 12 10 9 9 8 8 8 8 9 9 10 10 11 11 12 12 13 14 14 15 15 15 15 16 16 16 16 17 18 19 21 22 22 23 24
18 17 16 16 15 14 13 12 10 10 9 9 9 9 9 10 10 11 11 12 12 12 12 13 14 15 15 16 16 16 16 17 17 17 18 19 19 20 21 22 22 22
19 18 17 16 15 15 13 12 11 10 10 9 9 10 10 11 11 12 13 13 13 13 13 13 14 14 16 16 17 17 17 18 17 18 19 19 20 21 21 22 22 22
19 19 17 16 15 14 13 12 11 11 10 10 11 11 11 12 12 13 13 13 13 14 14 14 14 15 16 17 18 18 17 18 18 18 19 19 20 21 22 23 23 24
20 19 18 16 15 15 13 12 11 11 11 11 11 11 11 12 12 13 13 14 15 15 15 16 16 16 17 17 18 19 18 18 19 19 20 21 21 22 22 23 24 25
20 19 18 17 16 14 13 12 12 11 11 11 11 11 12 12 13 13 14 14 15 16 17 18 19 18 18 18 19 20 19 20 20 20 21 22 22 23 23 24 25 26
20 18 17 17 16 14 13 12 12 11 11 11 11 12 12 12 13 13 14 15 16 18 18 19 20 20 19 19 20 20 21 22 22 22 22 22 23 24 24 24 25 27
19 18 17 16 15 14 13 12 11 11 11 11 11 12 12 12 13 13 15 16 17 18 19 20 20 20 20 20 21 21 22 24 25 24 23 24 24 25 25 25 26 27
19 18 16 15 15 14 12 11 11 11 11 10 11 11 11 12 14 15 16 17 18 19 20 20 21 21 21 21 21 21 22 24 25 24 24 24 25 26 26 27 27 28
19 17 16 15 14 13 11 11 11 11 10 10 10 11 12 13 14 15 17 17 18 19 20 21 22 23 23 23 22 22 22 23 23 24 24 25 26 27 28 28 28 29
17 16 15 13 12 11 10 10 11 10 10 10 10 11 12 13 14 15 17 18 18 19 20 22 23 23 24 23 23 23 23 23 23 23 24 24 25 26 28 29 30 31
15 14 13 12 11 10 10 10 10 10 10 10 10 12 12 13 15 16 17 17 18 19 21 22 23 23 24 24 25 26 26 27 27 26 26 26 26 26 27 28 30 31
14 13 12 11 10 10 10 10 9 10 10 9 10 12 13 14 16 17 17 18 19 20 21 22 23 23 24 25 27 28 29 30 32 31 30 30 29 30 29 28 28 30
14 13 12 11 9 9 9 9 9 9 10 10 12 13 14 14 16 17 19 19 20 21 22 23 24 23 24 26 27 28 29 30 31 32 32 31 31 32 31 31 30 30
14 12 10 9 8 8 8 9 9 10 10 11 13 14 14 14 15 17 19 20 20 22 23 24 25 25 25 27 28 29 29 30 31 31 30 31 31 32 32 33 32 31
12 11 9 8 7 8 9 10 10 10 11 12 13 13 11 12 14 17 19 21 21 22 23 25 25 26 27 28 30 31 31 32 34 34 33 32 32 32 33 34 34 34
10 8 7 7 7 9 10 10 10 11 12 12 12 10 10 12 15 18 20 21 22 23 24 25 26 27 29 30 31 32 32 33 34 36 38 37 35 34 35 35 36 36
7 6 6 6 8 9 10 10 10 12 12 12 12 11 12 13 15 18 20 22 23 24 25 25 26 27 29 30 31 32 32 33 34 36 37 37 36 36 36 36 37 37
5 5 6 8 8 9 10 10 10 11 12 13 12 11 12 14 16 19 21 23 24 24 24 26 27 27 29 31 33 33 34 35 36 36 36 36 36 36 36 36 36 36
5 6 7 7 8 8 8 9 9 11 13 14 12 10 12 15 18 20 22 23 24 25 25 28 29 28 29 31 32 33 34 35 37 37 36 36 36 35 35 35 35 36
4 6 6 6 6 7 7 9 10 11 12 12 10 11 14 17 19 21 23 24 26 27 27 28 29 29 29 30 31 33 33 34 37 37 34 34 35 34 35 35 35 36
4 5 4 4 6 7 7 9 10 12 12 10 9 12 15 18 20 22 24 25 26 27 27 28 28 29 29 30 32 34 35 35 36 35 33 33 32 32 32 34 34 34

ECMWFNIL_925_spd_003.txt.gz
Wind_Speed
20 20 19 18 16 15 16 15 13 13 13 12 10 9 8 7 7 8 8 9 9 9 10 11 10 10 11 12 12 13 13 14 14 15 17 19 21 21 21 20 19 19
21 21 19 18 17 15 14 14 13 13 12 11 11 9 7 6 6 7 8 8 9 9 10 11 11 11 12 12 13 13 14 15 16 15 15 17 18 20 21 21 20 19
22 21 20 19 18 16 14 15 15 13 12 11 10 9 8 7 6 7 8 8 9 10 10 10 10 10 10 10 11 12 13 15 16 16 17 18 18 19 20 21 21 20
23 22 21 20 19 17 16 16 16 14 13 11 10 9 8 8 8 8 8 9 9 10 9 9 10 10 11 11 11 13 14 15 15 16 17 20 20 20 20 20 21 22
24 23 22 20 19 18 18 18 17 15 13 11 9 9 9 9 9 9 10 10 10 10 11 12 12 13 14 15 14 14 15 15 16 16 17 19 21 21 21 21 21 22
25 24 23 22 20 20 19 19 17 15 12 11 10 11 10 10 10 11 11 12 12 13 14 14 14 14 15 16 16 16 16 16 17 17 18 19 21 21 22 22 23 23
27 25 24 23 22 21 19 18 17 15 13 12 12 12 10 10 11 11 12 13 13 14 15 14 15 15 14 15 15 15 16 17 18 18 18 20 21 22 22 23 24 25
27 26 25 24 23 22 20 18 16 14 14 13 12 11 11 11 12 12 13 13 13 14 14 14 15 15 14 14 15 16 17 18 18 19 20 21 22 23 23 23 25 27
27 26 25 24 23 22 21 18 16 15 14 13 12 11 11 12 12 12 12 12 12 13 13 14 15 14 13 13 14 15 16 17 18 18 20 21 22 22 23 23 24 26
28 27 26 24 23 22 21 18 16 15 13 13 12 12 12 12 11 11 12 12 13 13 14 14 14 13 13 14 15 16 17 18 19 20 21 22 23 23 23 22 23 24
28 27 26 25 24 22 20 18 16 14 13 13 12 12 12 11 11 12 12 12 12 13 13 14 14 16 17 18 19 19 20 21 22 22 22 23 24 25 25 23 23 24
29 29 27 25 24 21 19 17 15 15 14 13 13 12 12 12 12 12 11 12 13 14 16 17 18 19 20 21 21 22 23 23 23 23 23 24 25 26 26 26 25 25
30 29 28 26 23 21 19 17 15 15 15 14 13 12 12 12 11 11 12 13 14 15 15 16 17 18 19 20 21 22 22 23 23 24 24 25 25 26 27 27 27 27
30 29 27 25 23 21 19 17 16 15 14 13 13 12 12 12 12 13 14 14 15 15 15 16 17 18 19 20 21 21 22 22 23 24 24 25 25 25 26 27 28 28
29 27 25 23 22 20 19 17 16 14 13 13 14 14 14 13 13 14 14 14 15 15 16 17 18 19 20 20 21 22 22 23 23 23 24 25 26 26 26 26 27 27
28 27 24 22 21 20 18 16 14 14 14 15 15 15 14 13 13 14 14 13 13 13 14 15 17 19 20 21 21 22 23 24 25 25 25 25 27 28 29 30 31 31
28 26 24 22 20 19 17 14 13 14 15 15 15 14 12 12 14 14 13 11 11 13 15 17 19 20 22 23 24 25 27 28 29 29 28 27 27 28 29 30 31 33
27 25 24 21 19 17 14 13 14 14 14 14 13 11 11 12 12 12 11 11 13 15 17 19 21 23 24 25 26 27 27 28 30 32 31 31 30 29 30 29 30 31
25 24 21 18 15 13 13 13 14 14 13 12 10 10 10 11 10 10 11 13 15 16 18 20 22 24 25 26 26 27 27 28 30 32 32 33 32 32 32 32 31 31
23 21 18 16 14 13 13 13 12 11 10 9 10 11 11 11 10 10 11 13 15 16 19 20 22 25 26 26 26 26 26 27 29 30 32 33 33 33 33 34 34 33
21 19 17 14 13 12 12 11 10 9 9 10 11 10 8 7 7 9 11 13 16 18 20 22 23 24 25 25 25 25 26 27 28 30 32 33 33 33 33 34 35 35
20 18 15 12 11 11 10 9 9 9 8 7 6 4 3 5 7 10 13 15 17 19 22 23 24 25 25 25 25 26 27 28 29 31 31 32 33 33 34 35 36 36
18 16 13 11 11 10 8 7 6 6 4 2 3 4 6 8 11 13 15 17 20 22 24 26 28 28 27 27 27 28 29 30 30 31 30 31 32 33 34 36 37 37
17 14 12 11 9 7 5 3 2 1 1 4 6 7 9 10 13 15 16 19 21 24 26 28 29 29 28 28 29 30 30 31 31 31 31 31 33 33 34 35 36 37
16 13 10 9 7 5 4 3 1 1 5 7 7 8 9 10 12 14 17 20 22 25 27 28 29 31 30 30 31 30 30 31 31 31 31 31 33 34 35 35 35 36
15 12 9 7 5 4 3 2 4 6 6 6 6 6 8 11 13 15 18 22 26 27 28 27 29 31 31 31 31 31 31 32 32 31 31 32 33 34 34 34 34 34

ECMWFNIL_925_spd_009.txt.gz
Wind_Speed
28 27 27 26 26 25 23 21 19 17 15 14 13 11 10 9 7 7 6 5 5 6 8 9 11 12 12 11 11 12 13 13 13 13 14 13 13 13 12 12 12 11
30 29 28 28 28 27 25 22 20 18 17 15 13 12 11 10 9 9 8 8 8 8 9 10 11 12 12 11 12 13 14 14 14 14 14 14 14 14 14 14 14 13
31 31 29 29 29 28 26 24 22 20 18 16 14 13 12 12 11 10 10 9 8 8 8 9 11 12 12 12 13 14 15 16 15 15 15 14 15 15 15 16 16 16
33 32 31 30 29 28 26 25 24 22 20 18 15 14 14 13 12 11 10 9 9 8 9 9 10 11 12 12 13 15 15 15 15 15 15 15 15 15 16 16 17 18
34 33 32 31 30 28 27 27 25 23 22 19 17 16 16 14 13 12 11 10 10 9 10 10 11 12 12 13 14 14 15 15 14 15 16 17 17 17 17 18 18 18
35 34 33 32 31 29 28 28 26 25 23 21 19 19 18 15 14 13 12 11 10 9 9 10 11 12 13 13 13 13 14 15 15 16 16 17 18 19 20 20 20 20
37 36 35 33 32 31 29 28 27 25 25 23 21 21 19 17 16 14 13 11 9 8 9 9 11 12 13 13 13 13 13 14 15 16 17 18 19 21 21 21 22 22
38 36 35 34 32 31 29 28 27 26 26 25 23 22 21 18 16 15 13 10 9 8 8 9 11 12 12 12 12 13 13 14 15 15 17 18 19 20 20 19 20 22
37 37 35 34 33 31 29 28 27 26 26 26 25 23 21 18 16 14 11 9 7 7 8 10 11 11 10 10 11 12 13 14 15 16 17 17 18 18 18 18 19 20
31 34 35 35 33 31 29 27 26 25 26 25 25 23 20 18 15 13 9 7 7 7 9 10 10 9 9 11 12 13 15 16 16 17 17 17 17 17 17 17 18 19
28 28 31 33 33 30 28 26 25 25 25 24 23 20 19 17 15 12 9 8 7 8 9 9 8 8 10 12 14 15 16 17 17 18 18 18 17 17 17 17 17 18
30 28 27 28 29 29 27 25 24 24 24 23 20 18 17 15 13 11 9 8 8 9 9 7 7 8 11 12 14 15 16 17 18 18 19 19 19 19 18 17 17 17
32 32 31 29 28 27 26 24 24 24 23 21 18 17 15 13 12 10 9 9 9 9 7 6 7 9 11 13 14 16 17 18 19 20 20 20 20 20 19 19 18 18
34 34 34 33 32 29 26 25 24 23 22 19 17 16 14 12 11 11 10 10 9 7 5 6 8 9 11 13 14 16 17 19 20 21 22 23 23 22 22 21 20 20
33 34 34 34 33 31 29 27 25 23 21 18 17 14 13 12 12 11 11 10 7 5 5 5 6 8 10 12 14 16 17 19 21 22 23 25 25 25 24 23 22 22
33 34 34 34 34 32 31 29 27 24 21 19 16 14 14 13 13 12 11 8 5 3 4 4 6 8 10 12 14 16 18 20 22 23 24 25 26 26 26 25 24 24
33 34 35 37 36 35 34 32 28 26 24 20 18 16 15 15 14 12 10 7 5 4 4 5 6 9 11 14 16 18 20 21 23 24 25 25 26 26 27 27 26 26
32 33 34 35 36 37 35 32 30 28 26 22 20 18 17 16 14 12 9 6 5 4 5 5 7 11 13 16 18 19 21 22 24 25 26 26 26 27 28 28 28 28
32 33 33 33 33 33 30 29 30 29 26 23 21 19 18 17 15 11 8 6 5 4 4 6 8 11 14 17 19 21 22 23 24 26 27 27 27 28 28 29 29 29
33 35 37 36 34 31 30 31 31 28 25 22 21 20 19 17 14 10 8 6 5 4 5 6 8 11 15 18 21 23 23 23 24 26 28 28 29 29 29 29 29 29
32 33 34 35 36 36 35 33 30 26 24 22 21 20 18 15 12 10 8 6 4 4 4 5 7 12 16 19 22 24 23 23 24 26 28 29 30 30 30 30 29 29
28 25 22 24 29 33 33 32 28 24 22 21 20 18 16 13 11 9 7 5 5 4 4 5 8 13 16 19 22 24 24 23 25 27 29 30 30 30 30 29 28 28
26 24 21 21 25 26 27 27 25 22 21 21 20 18 16 13 11 8 6 5 5 5 5 7 10 13 16 19 21 23 23 24 26 27 29 30 31 31 30 29 28 27
28 28 29 29 29 28 26 24 21 21 21 20 19 17 15 12 9 7 7 7 6 6 8 10 11 13 16 18 21 23 24 24 26 28 29 31 32 32 30 29 29 28
31 32 33 31 31 30 28 24 23 23 21 19 16 14 12 10 8 8 9 9 7 8 11 12 13 14 16 19 22 24 24 25 27 29 30 32 32 32 30 29 28 28
34 36 36 34 32 30 27 26 25 23 20 17 14 12 10 8 8 10 10 9 9 11 13 14 15 15 17 20 22 24 26 26 27 29 31 33 32 31 30 30 29 29

ECMWFNIL_925_spd_012.txt.gz
Wind_Speed
31 27 24 23 22 21 19 17 16 15 14 13 11 9 9 9 8 6 5 3 1 1 3 4 7 9 10 10 11 13 14 15 14 14 14 14 14 13 13 12 12 11
32 29 26 25 24 23 21 19 18 16 15 14 11 10 10 10 8 7 6 4 3 3 2 3 6 8 9 10 11 12 13 13 13 13 14 14 14 14 14 13 13 13
33 30 29 27 26 25 24 22 20 18 17 15 14 12 12 12 11 9 7 7 6 5 3 3 5 7 8 9 10 11 12 12 12 12 13 13 13 13 13 14 14 14
35 33 31 29 28 27 25 23 23 21 19 18 16 15 14 14 13 12 10 10 9 7 4 2 3 5 6 7 8 10 11 11 11 11 12 13 13 13 14 15 15 14
34 34 32 31 29 28 27 25 25 24 22 20 18 16 16 15 15 14 13 12 11 8 5 1 2 3 5 6 7 8 9 9 10 10 12 13 14 15 16 16 16 15
32 33 33 32 31 30 29 27 26 25 24 22 20 18 17 16 15 15 14 13 12 9 5 2 0 2 3 5 7 8 8 9 10 11 12 13 14 15 16 16 16 16
35 35 34 34 33 32 31 29 28 27 25 23 22 21 19 17 16 15 14 13 11 9 6 4 2 2 3 5 6 7 8 9 10 11 12 13 14 15 15 15 15 15
36 35 35 35 35 34 33 31 30 29 27 25 24 23 21 19 18 16 15 14 11 9 7 5 4 3 4 5 6 7 9 10 10 11 13 13 14 15 15 15 15 15
35 35 35 35 36 35 34 33 32 30 28 27 26 25 23 21 20 18 16 14 12 9 7 6 5 4 4 5 6 8 9 10 11 12 13 14 14 15 15 15 16 16
38 38 36 36 37 37 37 36 34 32 30 28 27 26 25 23 21 20 18 16 13 11 9 7 6 4 4 4 6 7 8 9 11 12 13 14 15 15 16 16 16 16
41 39 37 38 39 38 38 37 35 33 31 29 28 27 26 25 23 21 19 17 14 12 10 8 6 5 4 4 5 6 7 9 11 12 13 15 15 16 17 17 17 17
40 38 37 38 39 40 39 37 35 33 31 30 29 28 27 26 24 22 19 17 15 12 10 8 7 5 5 4 4 5 6 8 10 11 13 15 16 17 17 18 18 18
37 38 39 39 39 39 39 36 35 33 32 31 30 29 28 27 24 21 18 16 14 12 10 9 7 5 4 3 3 4 6 8 10 12 14 16 17 18 18 19 19 19
34 37 39 38 36 37 37 36 35 34 34 32 31 30 30 28 25 21 18 16 13 12 11 9 6 4 3 2 3 4 7 9 12 14 15 17 18 19 19 20 20 21
32 34 36 35 35 36 37 38 38 37 36 34 33 32 31 28 25 22 19 17 15 13 11 8 6 4 3 2 3 6 9 11 12 14 15 17 19 20 21 21 22 22
30 32 33 34 36 37 39 40 39 38 37 36 35 33 30 27 25 22 19 18 17 15 12 9 7 6 3 2 5 8 10 11 12 14 15 16 18 20 21 22 23 23
27 30 32 34 35 37 37 36 33 33 34 34 34 32 29 27 24 22 20 19 17 15 12 10 8 6 3 3 5 8 11 11 12 14 15 16 18 20 22 24 25 25
25 28 30 32 33 33 32 29 27 29 31 32 32 31 29 27 25 23 22 20 17 15 13 11 9 5 3 3 5 8 10 11 12 14 15 16 18 20 23 25 26 27
24 27 29 30 30 29 29 28 30 33 34 33 32 30 29 28 26 25 23 21 18 16 14 11 8 6 4 3 5 8 10 12 13 14 16 17 19 21 23 25 27 28
23 25 27 28 27 27 28 30 33 34 33 33 32 30 29 27 26 25 23 20 17 15 13 11 8 6 4 4 6 9 11 13 15 16 17 19 21 23 24 26 27 28
21 23 25 25 25 27 30 33 35 36 36 34 33 30 28 26 26 24 22 19 17 15 12 9 7 5 4 5 8 10 12 14 16 18 19 21 23 25 26 27 27 28
21 22 23 24 26 28 31 33 35 38 38 36 32 29 28 27 26 23 20 18 16 14 11 8 6 5 6 8 10 12 13 15 17 20 21 23 25 27 27 27 27 28
21 22 23 25 27 29 32 35 36 37 37 35 32 30 29 27 25 21 18 16 14 12 10 7 6 6 7 9 11 13 14 16 19 21 22 25 27 27 27 27 27 27
21 22 24 26 28 31 34 34 33 32 33 33 32 31 29 26 22 18 15 12 11 10 8 6 6 8 9 11 13 13 14 17 20 22 24 26 27 27 27 27 28 27
21 23 25 27 29 31 34 33 30 30 31 30 29 27 24 21 17 14 12 12 11 10 8 8 9 10 11 13 14 14 15 18 21 22 25 26 27 27 27 27 27 27
21 23 26 28 29 31 33 34 34 34 32 28 24 21 19 17 15 14 14 13 11 10 9 10 11 11 13 14 15 14 16 19 22 24 26 27 27 27 28 28 27 27

ECMWFNIL_925_spd_015.txt.gz
Wind_Speed
26 24 24 24 24 22 20 19 17 16 16 15 14 14 14 14 13 13 12 10 9 8 8 8 9 9 10 12 13 14 14 14 14 13 12 12 11 11 10 10 9 8
27 26 25 25 25 24 22 20 18 17 16 15 14 14 14 14 13 13 12 11 10 8 8 8 7 6 8 9 10 12 13 12 12 11 10 10 9 8 8 8 8 7
28 27 26 26 27 26 23 21 19 18 17 16 15 15 15 15 15 14 13 12 10 9 8 7 7 6 7 7 8 9 11 10 10 9 8 8 8 7 7 6 6 6
30 29 29 28 28 27 25 23 21 20 19 18 17 16 17 16 16 15 14 13 11 10 9 7 6 6 6 6 7 8 9 9 9 8 8 8 7 7 6 6 6 5
31 30 30 29 29 28 26 24 23 22 21 20 19 18 18 18 18 17 16 15 13 11 10 8 6 5 5 5 6 7 8 8 7 7 7 7 6 6 6 5 5 5
30 30 30 30 31 30 29 27 26 24 24 22 21 20 20 20 20 19 18 17 15 14 12 10 8 6 5 5 5 6 7 7 7 7 7 7 6 6 5 4 4 4
31 31 31 31 32 32 32 30 28 27 26 24 24 23 22 22 22 21 19 19 17 16 13 11 9 8 6 5 5 6 6 6 6 6 6 6 5 5 5 5 4 4
32 32 32 33 34 34 34 33 31 30 28 27 26 25 24 24 23 22 21 20 20 18 15 12 10 9 7 7 6 6 6 6 6 5 4 5 5 4 4 5 5 5
33 35 35 35 34 34 35 36 35 33 31 29 28 27 26 26 25 24 23 22 21 19 17 14 12 10 8 8 7 7 7 6 5 4 4 4 4 4 5 5 5 6
33 35 37 37 35 34 35 36 36 35 33 32 30 28 28 27 27 25 24 24 23 20 18 16 13 11 10 8 7 6 7 6 5 4 3 3 4 5 5 6 6 7
31 34 36 38 37 35 34 34 35 34 34 33 32 31 30 29 29 27 26 25 24 22 19 17 14 12 11 9 7 6 6 5 3 3 3 3 5 6 6 7 7 8
29 31 34 36 37 36 34 32 32 33 33 34 34 32 31 31 31 29 28 27 25 23 20 17 15 12 11 9 7 5 4 3 2 3 4 5 6 7 7 8 8 9
26 29 32 33 35 36 34 32 31 32 33 33 34 34 33 33 33 32 31 29 27 24 21 18 15 13 11 9 7 5 3 1 2 4 6 7 8 8 8 9 9 10
22 26 29 31 32 33 33 32 32 32 32 33 34 34 33 34 34 34 33 30 28 25 21 18 16 14 12 10 7 5 3 1 2 4 5 7 8 8 9 9 10 10
16 21 25 28 31 32 32 31 31 31 31 31 31 30 30 30 31 32 31 29 27 24 21 18 16 15 12 10 7 5 3 1 2 4 4 5 6 7 8 9 10 10
12 15 18 23 27 30 32 32 30 29 28 29 29 29 29 30 29 30 30 27 24 22 20 19 17 15 12 9 7 6 4 1 1 3 4 5 6 7 8 9 10 11
11 12 14 17 21 25 28 29 28 27 27 27 28 29 31 32 31 32 32 28 25 23 21 20 18 14 12 10 8 6 4 2 1 2 4 5 6 7 8 9 11 12
14 12 12 13 16 20 23 25 26 26 26 26 28 29 32 32 32 34 34 30 28 25 23 20 17 14 12 10 8 6 3 1 1 3 4 5 7 8 9 10 12 13
18 15 12 12 13 16 20 23 24 25 26 27 28 30 33 35 35 35 34 31 29 26 23 20 17 15 13 10 8 5 2 1 2 3 4 6 8 9 10 11 13 15
19 16 14 12 11 13 17 21 24 25 27 28 29 31 35 37 37 36 34 31 29 26 23 20 17 16 13 10 7 4 2 3 3 5 6 7 10 12 12 13 15 16
19 17 15 13 11 11 14 18 22 25 27 28 29 33 36 38 37 35 33 30 28 25 22 20 18 15 12 9 6 4 4 5 5 6 7 9 12 14 15 15 17 18
17 16 15 12 11 11 13 18 22 25 26 27 30 33 35 36 36 34 33 30 27 23 21 19 17 14 10 8 5 5 6 6 6 7 9 11 14 16 17 17 18 19
16 15 14 12 12 13 15 19 22 25 26 27 30 32 33 34 35 34 32 29 26 23 21 18 15 13 10 7 6 6 7 7 7 8 9 13 16 17 18 18 20 23
16 15 14 13 14 14 16 19 23 25 26 27 29 31 32 33 34 33 30 27 25 22 18 14 12 11 9 7 7 7 8 7 7 8 10 13 15 15 16 17 20 25
17 16 14 14 15 16 17 20 23 25 26 27 28 29 29 28 29 29 27 24 21 18 14 11 10 10 9 8 8 9 9 8 8 9 11 13 14 15 16 16 18 21
17 17 15 15 16 16 17 21 24 25 26 27 28 29 29 26 24 23 22 21 18 14 11 9 9 10 10 9 9 10 10 10 9 10 12 14 15 16 17 18 18 18

ECMWFNIL_925_spd_021.txt.gz
Wind_Speed
15 15 14 14 13 13 13 12 11 11 10 9 9 9 9 9 10 8 7 6 6 5 5 4 4 4 4 3 3 4 4 5 5 5 5 5 5 5 4 4 4 3
15 15 14 14 14 13 13 13 12 12 11 10 9 10 10 11 11 10 8 8 7 6 6 5 5 4 4 4 3 3 3 4 4 4 4 4 4 4 4 4 4 4
16 15 14 13 13 13 13 13 13 12 12 11 10 10 11 13 13 12 10 9 8 8 8 7 6 5 5 5 4 3 3 3 3 3 3 3 3 3 3 3 4 4
16 15 14 13 12 12 12 13 13 13 13 12 12 12 13 14 14 13 13 11 10 9 9 8 8 7 6 6 5 4 4 4 4 3 3 3 3 2 2 2 2 3
15 15 15 14 13 12 11 12 13 13 13 13 14 14 14 15 16 15 15 14 12 11 11 10 9 8 8 7 6 5 5 5 4 4 3 3 2 2 2 1 1 1
13 14 15 15 14 13 12 12 12 12 13 13 14 15 15 17 17 17 16 16 15 13 13 12 11 10 9 8 7 7 6 6 6 5 5 4 3 2 2 1 1 1
10 12 13 14 14 13 14 14 13 13 13 13 14 14 15 17 18 18 18 17 16 16 15 14 13 12 11 10 9 8 7 7 7 6 6 5 5 4 3 2 2 2
10 12 12 12 13 13 13 13 13 12 13 14 15 15 15 17 17 18 18 18 18 17 17 16 15 15 14 12 11 10 9 8 8 8 7 6 5 5 5 4 2 3
8 11 12 12 13 13 14 15 14 13 14 15 14 14 16 17 17 17 18 19 19 19 18 18 17 16 16 15 13 13 12 10 9 9 8 7 6 6 5 4 4 4
7 8 11 11 11 11 11 13 14 13 14 15 14 14 16 16 16 18 18 19 19 19 19 19 19 18 18 16 15 15 14 12 11 11 10 8 8 7 5 4 4 4
7 8 9 9 10 10 11 13 16 15 14 15 14 14 16 16 17 18 19 20 20 20 20 20 20 19 19 18 17 16 16 14 13 12 11 10 9 8 7 5 5 4
6 8 8 8 8 9 11 16 20 19 16 16 15 15 16 18 19 19 20 21 21 21 21 20 19 19 19 18 17 17 16 15 14 13 12 12 11 9 8 7 6 5
3 4 5 6 6 7 9 12 16 17 18 20 20 18 17 18 20 21 21 22 22 22 21 21 20 20 19 19 18 18 17 16 15 14 13 12 11 10 9 8 7 6
1 1 2 3 4 6 7 10 14 16 18 20 20 19 18 19 20 21 22 23 23 22 22 22 22 21 21 20 19 18 18 17 16 15 14 13 11 10 10 9 8 7
3 3 2 2 3 4 5 8 11 14 17 17 17 16 17 19 20 20 21 22 22 23 23 23 23 23 23 22 20 19 19 17 16 15 14 13 12 11 11 9 9 8
4 4 4 4 4 5 6 7 8 10 12 12 14 15 16 18 20 20 20 21 22 21 21 22 23 23 23 24 23 21 19 17 16 16 14 13 12 11 11 10 9 8
4 4 5 5 6 6 7 7 8 9 9 9 11 13 15 17 19 19 19 19 20 21 21 21 21 20 22 26 27 24 19 16 16 15 14 13 12 11 10 9 9 8
5 5 6 6 6 7 7 8 8 9 9 10 11 12 13 14 16 17 18 18 19 21 22 20 19 20 23 27 29 26 20 16 14 14 13 12 11 10 9 8 7 7
6 6 7 7 7 8 8 8 9 9 10 10 11 11 12 13 15 15 17 18 18 19 20 19 19 21 24 28 29 26 22 17 12 13 13 11 11 10 8 7 7 7
6 7 7 8 8 9 9 9 10 10 10 10 11 12 12 13 14 15 17 17 17 18 20 20 21 22 24 28 29 27 24 18 12 11 11 10 9 9 8 8 7 7
7 7 7 8 9 9 10 11 11 11 11 11 12 12 12 13 14 14 16 17 17 18 18 19 21 24 26 29 28 27 25 19 11 10 9 7 8 9 8 8 8 8
7 8 8 9 10 10 11 11 11 12 12 12 12 12 13 13 13 14 15 16 18 18 16 17 21 24 27 29 28 26 23 16 10 8 7 7 7 8 8 8 9 9
8 9 9 9 10 10 11 11 11 12 12 12 13 13 13 13 14 13 13 15 17 17 16 18 22 25 27 28 26 23 18 13 9 8 7 7 8 8 8 8 9 10
10 10 10 10 10 11 12 12 12 13 13 12 12 13 14 14 13 13 12 13 15 15 17 21 24 26 27 25 22 19 16 11 8 8 7 7 7 7 8 8 9 11
11 11 11 11 11 12 12 12 13 13 13 13 13 13 13 13 13 13 10 9 10 14 18 21 25 27 25 22 18 15 13 9 6 6 6 6 6 7 7 8 9 11
13 12 12 12 12 12 12 13 13 13 13 13 13 13 13 13 13 12 8 8 10 14 17 21 27 29 24 19 16 14 12 8 4 3 4 4 5 6 7 9 10 11

ECMWFNIL_925_spd_024.txt.gz
Wind_Speed
18 18 18 16 15 15 14 13 12 11 10 10 10 10 10 9 8 8 7 6 6 5 5 5 5 6 6 7 8 8 8 8 8 8 8 8 9 9 9 8 8 8
19 18 18 16 14 14 15 12 11 12 10 8 10 10 10 10 9 9 8 7 7 6 6 5 5 6 5 5 7 7 7 8 7 7 8 7 7 7 8 7 8 9
19 19 18 17 14 13 15 13 10 11 10 8 8 10 11 11 9 9 9 8 8 7 6 6 5 6 5 5 6 6 6 7 6 6 6 6 6 6 6 5 6 7
19 18 17 17 15 12 14 15 10 10 10 9 8 8 10 11 9 10 10 9 9 9 8 7 7 6 6 6 6 6 6 6 6 6 6 6 6 5 5 5 4 5
17 16 14 14 13 11 12 14 12 9 10 10 9 8 10 11 10 11 11 11 11 10 10 9 9 9 8 7 7 7 7 6 6 6 6 5 5 5 4 4 4 4
16 15 13 11 10 8 7 9 9 8 8 8 10 9 9 10 11 12 13 13 12 12 12 12 11 11 11 9 9 8 8 8 7 7 7 6 5 5 5 4 3 3
13 12 11 10 10 9 7 6 7 6 7 7 9 11 11 11 11 12 14 14 14 14 14 14 13 13 13 12 11 11 10 10 9 9 9 8 7 6 6 5 4 3
11 10 9 9 10 10 9 9 8 6 8 9 9 11 12 13 13 13 14 15 15 16 16 16 15 16 16 14 14 14 13 12 12 12 11 11 10 9 7 7 6 4
11 11 11 11 12 11 9 9 10 9 8 10 12 11 10 12 13 14 16 16 17 17 17 17 17 17 17 17 16 16 15 15 15 13 13 13 12 10 10 9 8 6
10 10 12 13 15 14 12 12 14 14 12 12 12 13 13 12 13 14 15 17 19 19 18 18 18 18 18 18 18 17 17 17 16 15 14 14 13 11 11 10 9 8
8 8 10 11 14 15 14 14 15 15 15 15 15 14 14 14 16 18 18 19 20 21 21 20 19 19 18 18 17 17 17 17 16 16 15 15 14 12 12 11 10 9
4 4 4 6 8 10 12 14 16 17 18 20 19 17 15 17 22 23 22 20 20 20 22 22 21 20 19 19 17 16 17 17 15 15 16 15 14 13 13 12 11 9
3 2 3 3 4 4 6 10 12 15 18 21 22 21 20 23 26 25 22 22 22 22 22 22 21 20 18 19 19 18 18 18 17 16 16 16 15 14 13 12 12 10
5 4 4 3 3 4 5 7 10 12 14 17 20 22 24 26 26 25 23 21 21 22 22 21 21 21 19 17 17 18 20 20 19 18 17 16 15 14 13 12 12 11
5 4 4 3 3 4 5 7 9 11 12 15 18 21 24 25 25 24 23 20 19 22 24 23 23 23 21 19 19 20 22 21 20 19 18 16 15 14 13 12 12 10
2 2 1 2 2 2 3 4 6 9 12 14 16 19 20 21 22 22 22 21 21 23 25 27 26 24 23 23 23 24 24 22 20 19 17 16 15 14 13 12 11 10
1 1 1 1 2 2 2 3 4 5 7 9 11 13 14 15 17 18 19 20 21 23 25 27 27 26 25 24 24 25 26 23 20 19 17 16 15 14 13 13 12 11
1 0 2 2 2 2 3 4 4 4 6 7 8 9 10 11 13 15 16 17 18 19 21 23 25 25 25 23 21 23 26 24 20 18 17 16 15 14 13 13 12 12
0 2 3 2 2 3 4 4 5 6 7 7 8 9 9 10 11 13 14 16 16 16 17 18 21 23 24 23 21 22 25 23 19 17 17 16 14 13 13 12 11 12
2 2 3 3 3 4 5 6 7 8 8 8 8 9 10 11 12 13 14 15 16 16 15 16 18 19 21 23 24 24 26 23 18 16 16 15 13 13 13 12 10 10
3 3 3 3 4 5 6 7 7 8 9 9 9 10 12 13 13 14 15 16 16 16 16 16 16 16 18 22 25 26 27 23 16 14 15 14 12 13 13 12 10 9
4 3 3 4 5 6 6 7 8 8 9 9 10 11 12 13 14 14 15 15 15 15 15 15 14 14 17 21 24 26 26 22 17 14 15 14 11 11 11 10 9 9
5 5 5 6 6 7 7 8 8 8 9 10 11 12 13 13 14 15 15 15 14 13 14 14 13 15 18 20 23 25 25 21 18 16 15 12 10 9 9 9 9 10
5 6 7 7 7 8 9 9 9 10 11 11 12 14 14 14 14 14 15 14 12 10 11 13 14 16 19 21 23 24 22 18 15 14 12 9 8 7 8 9 10 11
7 7 8 9 9 10 10 10 10 11 12 13 14 15 15 14 14 14 13 10 9 8 9 12 14 17 20 21 22 22 19 15 11 10 9 8 8 8 8 8 8 9
9 9 10 11 11 11 11 11 11 12 13 14 14 14 15 15 13 10 6 4 4 6 8 9 12 17 20 21 20 19 17 14 10 8 7 7 6 6 5 5 5 8

ECMWFNIL_925_spd_027.txt.gz
Wind_Speed
27 25 25 22 20 21 19 18 18 17 15 14 12 11 9 9 9 10 9 7 7 8 9 9 11 11 9 8 6 7 9 10 10 10 10 10 10 10 11 11 11 9
27 24 23 21 19 19 18 17 17 16 15 14 12 11 10 9 9 9 7 6 6 7 7 9 11 10 8 6 5 6 9 10 10 9 9 10 10 11 12 12 10 8
25 23 22 21 20 19 17 17 17 14 14 15 14 12 11 10 9 9 7 5 5 6 6 8 10 9 7 6 5 5 7 9 8 7 6 8 9 10 11 11 10 7
22 22 21 19 19 20 17 16 17 15 13 14 15 13 11 10 9 9 8 6 5 5 5 7 9 9 7 7 6 4 6 6 5 6 6 6 6 6 8 10 9 7
18 18 19 18 17 20 18 16 18 17 14 13 14 13 12 10 10 9 9 7 7 6 5 5 7 8 7 8 8 6 6 6 5 5 6 5 5 3 6 9 9 7
16 16 18 17 16 19 21 18 17 17 15 13 13 12 11 10 9 9 9 8 8 8 8 7 6 8 8 7 9 8 7 7 6 6 6 4 4 3 3 6 7 5
16 16 17 17 16 19 22 19 17 16 15 14 13 12 11 10 9 9 8 8 9 10 10 9 8 9 10 9 9 9 8 8 7 8 8 6 5 5 4 3 4 2
18 16 16 17 17 20 21 20 19 17 16 15 15 13 12 11 10 10 10 10 10 11 12 12 11 10 11 11 10 10 9 9 9 9 10 9 7 7 6 5 5 4
20 18 19 19 18 19 19 19 20 18 17 16 16 15 14 13 13 12 12 12 12 12 13 14 13 12 12 12 12 12 11 11 12 11 11 12 11 10 9 7 7 7
17 15 15 16 17 19 19 18 18 19 19 18 17 17 15 13 14 14 14 13 14 15 15 15 15 16 15 15 14 14 14 14 14 14 13 13 14 13 12 10 10 9
12 11 11 12 15 17 18 17 17 17 17 17 17 17 15 13 13 13 13 13 14 16 16 16 17 18 18 19 18 17 17 17 17 17 16 15 16 15 13 13 13 11
7 8 9 10 12 13 14 14 15 15 15 15 15 15 14 14 15 15 13 11 12 13 14 15 17 20 21 21 21 20 20 20 20 21 19 16 17 16 13 13 14 11
8 7 7 7 8 8 9 10 11 13 14 16 15 14 14 15 17 17 15 13 13 13 13 13 16 21 22 21 21 21 21 21 22 22 21 19 18 17 15 14 13 12
10 9 8 7 7 7 7 7 8 11 13 15 15 16 17 18 19 19 19 18 18 17 17 17 16 18 21 22 22 22 22 23 23 24 22 20 20 19 17 16 15 13
8 7 7 7 6 5 5 6 7 9 11 12 13 14 16 17 18 19 20 21 20 19 19 20 20 19 20 21 23 23 23 23 24 25 24 22 21 21 19 18 17 15
8 7 7 7 5 4 5 5 6 7 8 10 9 9 10 11 12 15 18 20 21 21 21 22 22 23 22 21 22 23 24 24 23 23 25 24 23 22 20 19 18 17
8 7 7 6 5 5 4 4 4 5 7 9 9 9 10 10 12 14 16 18 20 21 22 23 23 24 24 23 22 22 24 25 24 23 25 26 24 23 22 20 19 18
8 6 5 5 6 5 3 2 2 2 2 5 7 7 8 10 13 15 16 16 17 18 19 20 20 21 22 23 24 24 24 26 25 23 25 27 26 24 23 21 19 18
7 5 4 5 6 4 2 1 1 1 2 3 5 5 5 6 8 11 12 13 15 16 16 16 17 17 18 20 21 23 24 25 25 24 26 28 26 24 23 21 19 17
5 4 4 4 5 4 2 1 2 2 3 4 5 6 6 7 8 9 10 11 13 13 13 14 15 16 16 16 17 19 21 23 23 23 26 26 23 21 20 19 17 17
5 6 6 4 4 3 2 2 2 3 4 5 6 7 8 9 10 11 11 12 13 14 14 15 15 15 15 16 16 16 17 18 20 21 23 22 20 19 19 17 16 16
5 6 7 6 5 4 4 4 4 5 5 6 6 8 8 9 11 12 13 14 14 14 15 16 15 15 15 15 14 14 15 18 20 20 20 20 19 18 18 17 16 15
5 5 6 6 6 6 6 6 6 6 6 6 8 9 10 11 12 12 13 14 15 15 15 16 16 15 14 14 13 13 16 19 20 19 19 19 17 16 16 16 14 11
5 4 5 6 7 7 8 8 7 8 8 8 9 11 12 13 14 14 14 14 15 15 15 14 14 13 13 12 12 14 18 19 19 19 18 17 15 13 12 10 8 6
4 5 6 6 7 8 9 9 10 11 11 10 11 12 13 14 15 16 15 14 14 13 12 11 11 11 11 12 13 16 18 18 18 18 17 14 12 10 7 6 6 7
9 9 10 10 11 13 13 14 14 13 12 12 11 12 14 15 14 12 11 9 9 9 9 9 9 11 12 13 16 17 17 16 16 16 14 12 11 10 9 7 6 6

ECMWFNIL_925_spd_030.txt.gz
Wind_Speed
27 26 24 23 24 25 25 23 22 21 19 18 18 17 17 16 15 14 13 12 12 13 12 11 9 9 8 8 9 10 11 11 10 9 10 11 10 10 11 10 9 9
27 25 25 24 24 23 23 23 22 20 18 18 17 18 18 17 16 14 13 13 13 14 13 11 10 9 8 8 8 9 10 10 11 10 10 12 11 10 10 9 8 7
24 24 25 25 24 23 23 23 21 19 18 18 17 17 17 17 16 14 13 13 13 14 14 12 11 9 7 7 8 8 9 9 10 9 10 12 11 10 10 9 8 7
22 24 26 26 24 23 23 24 23 21 19 19 18 17 17 16 16 14 13 12 12 13 14 13 11 8 6 6 7 7 7 7 7 7 8 10 9 8 8 7 7 7
23 24 27 27 24 23 24 25 25 23 22 21 20 19 18 17 17 16 14 13 12 12 12 12 11 9 7 6 5 5 5 5 5 4 6 8 7 7 7 5 5 6
24 25 27 27 25 24 25 25 25 25 24 23 22 21 20 18 17 16 15 14 13 12 12 12 11 10 10 8 7 6 5 5 5 5 5 5 4 5 7 6 4 5
26 26 26 27 26 25 26 26 25 25 24 24 24 23 21 20 18 17 15 14 14 13 12 12 11 11 11 10 9 8 7 7 6 6 5 4 3 5 7 6 5 3
26 27 26 27 28 28 27 26 26 24 23 24 25 24 23 21 19 17 16 15 15 14 13 12 11 11 11 11 11 11 10 10 9 9 9 8 7 6 7 6 6 4
27 28 27 25 24 25 25 23 24 25 22 22 23 23 23 22 19 18 17 16 16 15 14 13 12 12 12 12 12 12 12 12 12 11 11 11 11 10 9 7 7 6
21 22 25 24 18 18 20 19 19 21 21 22 24 24 23 22 20 18 17 17 16 15 15 14 13 13 13 13 13 13 13 13 13 13 13 13 13 12 11 10 9 9
15 12 15 20 19 19 22 22 21 22 20 20 22 22 21 21 20 19 18 17 17 16 16 16 15 15 15 15 15 16 15 14 14 14 14 14 14 14 14 13 11 10
16 15 14 19 23 22 23 24 24 23 19 16 16 16 16 16 17 18 18 18 18 18 18 18 17 17 17 17 18 18 18 17 16 16 16 16 16 16 16 15 14 11
12 18 19 19 18 17 17 19 20 19 18 17 15 13 13 13 13 14 15 15 16 17 18 17 18 19 20 21 22 22 21 21 20 19 18 18 18 18 17 17 16 13
9 15 16 14 13 13 14 15 16 16 16 16 15 15 14 13 13 13 14 14 14 15 14 14 15 17 19 21 23 24 24 24 23 22 21 21 21 20 19 18 17 16
14 14 14 12 12 13 12 12 12 12 11 12 12 13 14 14 14 14 15 15 16 16 16 15 15 17 17 17 18 22 25 25 25 24 24 24 24 24 22 20 19 18
11 10 10 10 10 10 9 8 8 7 8 9 9 10 11 10 10 11 12 13 15 17 18 17 16 16 16 16 16 18 21 23 24 25 26 26 27 26 25 23 22 21
8 8 9 9 8 8 7 7 7 7 7 7 8 8 7 7 8 9 10 11 13 15 15 16 15 15 15 16 17 19 20 21 22 24 26 27 28 28 27 25 24 23
9 9 10 9 8 8 7 6 6 5 5 5 5 4 5 6 7 7 8 10 12 14 14 14 14 13 14 15 16 18 20 20 20 21 23 25 27 29 29 28 27 26
9 9 9 9 9 9 8 7 6 5 3 2 1 1 2 3 4 4 5 6 8 9 11 11 11 11 11 12 13 14 16 18 19 20 22 24 25 28 29 29 29 28
7 7 8 9 9 9 8 6 5 4 3 1 1 2 3 3 4 5 6 7 8 8 9 10 10 11 11 12 12 12 12 14 16 18 20 22 23 26 29 30 30 29
5 4 5 7 7 6 6 5 5 4 4 4 4 5 5 6 6 7 8 9 9 10 10 10 11 12 13 13 12 11 11 11 13 15 17 19 21 24 27 29 28 27
5 5 7 8 7 5 4 4 5 5 5 5 6 7 7 8 8 9 10 10 10 10 12 12 12 13 14 14 13 12 10 11 11 12 13 16 18 21 24 25 24 22
7 6 8 9 8 7 6 6 6 6 6 7 7 7 8 9 10 10 11 12 11 12 13 14 14 14 14 15 14 12 10 10 10 10 10 12 15 17 19 19 17 16
7 6 7 8 8 8 8 8 8 9 8 7 7 8 9 10 11 12 13 13 13 13 14 14 15 15 14 15 14 12 9 8 9 10 11 13 14 15 15 15 14 13
4 5 5 6 7 8 9 9 9 9 9 9 9 10 10 11 12 13 13 14 14 15 14 14 15 14 14 13 13 11 8 7 9 12 14 15 16 16 15 14 14 13
7 8 8 7 7 8 8 9 10 11 12 13 12 11 11 11 11 12 13 13 14 13 13 12 12 11 11 10 10 9 8 8 11 14 15 16 16 15 14 12 11 9

ECMWFNIL_925_spd_033.txt.gz
Wind_Speed
23 23 22 19 18 17 16 15 14 13 13 12 12 12 13 14 13 12 10 10 10 10 11 11 11 11 10 9 8 9 9 9 9 9 8 9 9 9 9 9 9 9
24 24 23 20 19 17 17 15 14 14 13 12 12 12 13 13 13 12 11 11 10 10 10 11 11 10 10 10 9 9 9 9 10 8 8 9 9 9 9 9 8 8
26 27 25 22 19 17 17 17 15 15 13 13 13 13 13 13 12 12 11 11 11 10 10 10 10 9 9 9 9 9 9 9 9 9 8 9 8 8 8 8 8 8
29 29 27 23 19 17 19 19 17 16 15 13 13 13 13 13 12 11 11 11 12 11 10 9 9 8 8 8 8 9 10 10 10 9 8 9 7 7 8 7 8 9
30 30 28 25 20 16 20 22 19 17 16 14 14 14 14 14 12 11 10 12 13 12 11 10 9 8 8 8 8 9 9 10 10 9 8 8 7 6 6 6 7 9
30 32 31 28 23 18 22 24 21 19 18 16 15 14 14 14 13 11 11 12 13 14 13 12 11 10 9 8 8 8 8 9 9 9 8 8 7 6 6 5 6 7
31 31 30 30 25 20 22 24 23 21 20 19 18 16 15 14 13 12 12 12 13 14 14 14 12 11 10 9 9 8 8 8 8 8 8 7 7 6 6 5 4 5
28 28 27 28 25 21 22 25 24 23 22 22 21 19 17 15 14 15 14 13 13 13 14 14 13 12 11 10 10 9 8 8 8 8 8 7 7 7 7 6 5 4
22 25 25 26 25 22 23 25 25 25 24 24 23 21 19 17 16 16 16 15 15 14 13 13 13 13 12 12 11 10 9 9 8 8 8 7 7 7 8 7 6 5
17 20 20 21 22 22 21 20 19 19 21 23 22 20 20 20 19 19 19 18 18 17 15 14 14 14 14 13 12 12 11 10 10 9 9 9 8 8 8 7 7 6
15 16 15 14 16 17 18 15 13 15 18 20 20 19 21 23 23 23 22 22 22 20 18 16 15 15 14 14 13 13 12 12 12 11 11 11 10 10 10 9 8 7
16 17 17 16 15 16 18 17 16 19 22 21 21 21 22 24 24 24 24 25 26 24 22 19 17 16 15 15 14 14 14 14 14 14 13 13 13 12 12 12 11 10
15 17 18 20 20 21 21 18 18 20 19 17 18 20 21 23 23 23 25 27 29 29 27 23 19 18 17 17 17 17 17 17 17 17 16 16 16 15 15 15 14 13
13 17 20 22 24 23 20 18 18 19 16 13 14 16 17 18 18 18 21 23 25 29 30 26 22 20 19 18 19 20 21 21 21 20 20 20 19 18 18 18 17 16
12 17 21 23 23 21 20 20 20 19 17 17 18 18 18 18 18 17 17 18 21 25 25 22 18 17 16 17 18 20 22 23 23 23 23 23 24 22 21 21 20 19
12 14 17 19 19 18 17 20 21 20 19 21 22 21 19 19 19 19 19 21 22 21 19 16 14 15 15 15 16 17 18 19 20 21 22 24 26 26 25 24 23 23
10 11 13 14 15 14 15 18 19 15 13 15 17 18 18 19 20 20 21 20 17 13 11 11 12 12 12 13 13 14 15 16 17 19 20 22 26 28 27 27 26 26
10 10 11 11 11 11 13 15 14 10 10 12 14 15 15 15 14 12 10 7 4 4 5 6 7 8 8 9 11 11 13 15 16 18 19 20 23 25 27 27 27 27
9 9 9 9 9 8 9 9 9 9 10 11 10 10 9 6 5 3 1 1 2 3 3 4 4 5 6 7 7 8 10 12 13 15 16 17 19 20 22 24 26 27
7 7 7 7 7 7 8 8 8 8 8 8 7 6 4 3 2 1 2 2 3 4 4 5 5 5 6 6 7 8 8 9 10 11 12 14 15 17 18 21 23 25
5 5 6 7 8 8 8 7 7 6 5 5 4 3 2 1 2 2 3 4 5 6 6 7 7 7 8 8 8 9 9 9 9 9 10 11 13 15 16 18 20 22
5 5 6 7 8 8 6 5 4 4 3 2 1 1 1 2 3 5 6 7 8 9 10 10 10 10 11 10 10 10 10 10 9 9 10 10 12 14 15 16 18 19
6 6 6 7 8 9 7 5 4 4 4 4 4 3 4 4 6 7 8 9 10 11 12 13 13 13 13 13 12 12 12 11 10 9 9 10 11 12 12 13 14 16
4 5 5 7 10 11 9 7 6 5 6 6 6 6 6 6 8 8 9 10 12 13 14 15 15 15 14 14 13 13 12 11 10 9 8 8 8 9 9 9 10 11
1 2 3 5 8 10 9 8 8 7 7 7 7 7 7 7 8 8 8 10 11 14 16 17 16 15 15 14 12 11 9 8 9 8 7 6 7 7 8 9 10 11
4 4 4 4 5 6 7 7 8 7 7 7 7 8 8 8 8 8 8 9 10 13 16 16 15 14 13 12 10 8 6 6 8 8 8 9 9 10 11 12 12 11

ECMWFNIL_925_spd_036.txt.gz
Wind_Speed
20 17 16 14 13 13 12 10 8 7 6 5 4 4 5 6 4 3 3 3 3 3 4 4 4 5 6 7 7 7 7 7 8 8 7 9 9 10 11 11 11 12
20 18 17 15 14 14 12 10 7 6 6 4 3 3 4 5 4 3 2 1 1 1 2 3 3 3 4 5 6 6 7 7 8 7 7 8 9 9 10 10 10 10
20 18 19 17 15 14 12 9 7 6 5 5 3 3 3 5 4 3 3 2 2 2 1 2 2 2 3 4 5 5 6 6 7 7 7 8 8 8 10 10 10 11
21 19 20 18 14 13 12 9 7 7 6 5 4 3 4 4 4 4 4 3 4 3 3 2 2 2 2 3 3 4 5 6 6 6 6 7 7 8 9 9 11 12
21 20 21 19 15 13 15 13 10 9 7 5 4 4 4 5 5 5 4 4 5 4 4 3 2 3 2 0 2 3 4 5 5 5 5 7 7 7 8 9 10 11
20 21 23 22 18 16 18 16 12 11 9 6 5 4 5 5 5 6 5 4 5 5 6 5 4 4 3 2 1 0 2 4 4 4 3 4 6 6 7 7 8 9
20 22 24 24 21 19 19 16 12 12 11 9 7 6 6 5 5 6 5 5 5 6 7 7 6 6 5 5 4 3 1 1 2 2 2 2 3 4 5 6 6 7
18 19 22 24 21 20 20 17 14 13 12 12 11 9 9 8 7 7 7 7 6 6 7 8 9 8 8 7 6 5 4 2 1 1 2 2 2 3 4 4 4 5
16 16 20 21 20 20 21 18 15 14 13 14 15 14 13 12 11 10 9 9 8 7 9 10 10 10 10 10 9 8 6 5 4 4 4 3 3 3 4 4 3 3
17 16 18 20 19 21 22 18 16 16 14 14 17 17 16 16 14 13 13 13 11 11 12 12 12 11 11 12 12 12 10 9 8 7 6 6 5 5 5 5 4 4
18 16 16 18 20 22 23 19 16 16 14 14 14 14 15 15 14 15 15 15 13 13 14 14 13 13 13 13 15 17 16 13 11 11 10 10 9 8 7 7 6 5
17 14 14 17 20 21 22 19 17 16 13 11 12 13 13 12 13 15 16 15 15 14 14 15 16 16 15 14 15 19 21 20 16 14 14 14 13 11 11 10 9 8
15 14 15 17 19 21 21 20 19 16 13 14 18 18 16 16 18 20 19 17 16 16 16 18 20 19 17 15 16 18 22 24 22 18 16 17 16 14 13 13 13 11
16 15 15 15 17 19 21 21 20 16 14 17 19 17 17 18 18 17 16 15 15 14 15 19 21 22 21 19 19 20 22 24 24 22 20 20 20 18 16 16 15 15
15 15 15 16 17 19 20 19 17 15 14 15 14 14 14 12 10 12 13 14 15 14 13 16 20 22 21 19 18 18 18 21 23 21 20 21 21 21 20 19 18 17
14 15 16 18 19 20 20 17 14 13 14 14 14 15 14 11 10 15 16 15 15 14 14 17 19 18 17 16 15 14 15 17 17 16 16 18 19 20 20 20 20 18
14 14 15 18 19 18 17 15 13 14 14 14 14 14 14 12 11 13 13 12 12 13 14 17 16 14 13 12 12 12 14 14 14 13 14 15 16 17 18 19 19 19
13 12 12 14 14 14 14 13 13 12 12 11 9 8 8 7 6 7 7 7 8 8 9 10 9 8 8 8 8 9 10 10 10 11 12 12 14 14 15 16 17 17
8 7 7 8 9 9 9 10 10 9 8 7 5 5 6 5 4 4 4 4 3 2 1 1 2 3 3 4 6 6 7 7 7 8 9 10 10 11 12 13 14 16
5 5 6 7 7 7 8 8 8 7 7 7 7 7 8 8 8 8 7 6 5 5 4 4 4 3 3 3 4 5 6 7 7 8 8 8 8 9 10 12 13 15
5 6 7 7 8 8 9 9 9 9 9 9 9 10 11 11 10 9 7 6 5 4 4 4 4 4 5 5 5 5 6 6 7 8 8 8 8 9 10 12 14 15
4 6 8 8 9 10 11 11 11 11 10 10 9 10 10 9 8 6 5 4 3 3 3 4 5 5 6 6 6 7 7 7 6 7 8 8 8 9 10 11 13 13
1 4 7 9 10 11 11 12 11 11 10 9 8 8 7 6 5 4 3 3 3 4 5 7 8 8 7 7 7 7 7 7 6 6 7 8 8 8 9 10 11 11
5 2 2 5 7 9 9 10 11 10 9 8 7 7 7 5 4 2 1 1 2 4 7 10 12 11 9 8 8 8 7 6 6 6 6 7 7 7 8 8 9 8
6 5 3 1 4 7 8 8 9 9 8 7 7 7 5 4 2 2 2 1 2 4 6 9 11 12 10 7 7 7 7 5 5 4 5 6 6 6 6 6 6 5
6 4 2 1 1 3 5 6 6 6 6 6 6 5 4 4 4 4 4 3 3 4 5 7 10 11 9 7 6 6 5 4 3 4 4 5 5 5 4 3 2 2

ECMWFNIL_925_spd_042.txt.gz
Wind_Speed
11 10 9 10 10 11 13 12 12 12 12 11 10 9 9 9 9 10 11 11 10 10 9 9 8 7 7 7 7 8 9 9 9 9 9 9 9 9 9 9 8 7
12 11 10 10 10 12 13 13 14 13 12 12 11 10 9 9 9 10 10 11 10 10 10 9 9 8 7 7 7 8 8 9 9 8 9 9 8 9 9 9 9 8
13 12 12 12 12 13 14 16 16 14 14 13 12 11 10 10 10 10 10 10 10 10 10 9 9 8 8 8 8 8 8 8 9 8 9 8 8 8 8 8 8 8
14 13 12 12 14 14 15 17 17 16 15 15 13 13 12 11 10 10 10 10 9 10 9 9 9 8 8 8 8 8 8 8 8 8 8 8 8 8 8 8 8 8
15 14 13 13 13 14 14 14 15 17 17 16 15 15 14 12 11 11 10 10 9 9 9 9 9 8 8 8 8 8 7 7 7 7 8 8 7 7 7 7 8 8
16 14 13 13 13 13 12 11 12 17 18 16 14 14 15 14 12 11 11 10 10 9 9 9 8 8 8 7 7 7 7 7 6 6 7 7 6 6 6 6 6 7
14 14 13 12 13 14 12 10 11 15 17 15 11 11 14 15 13 12 12 11 10 10 9 9 8 8 7 7 7 7 6 6 6 6 6 6 6 5 5 5 5 5
12 13 12 12 14 14 13 11 11 13 14 13 11 10 11 13 13 13 13 12 11 10 10 9 8 8 7 7 7 7 7 6 5 5 5 5 5 4 4 4 4 4
10 11 12 12 13 14 14 12 11 11 13 13 12 11 10 11 12 13 13 13 12 11 10 10 8 8 7 6 6 6 6 6 5 5 4 4 4 4 4 4 3 3
10 10 11 12 13 13 14 14 12 11 12 12 12 12 11 11 11 12 12 12 12 11 11 10 8 7 6 6 5 5 5 6 5 5 4 3 3 3 3 3 2 2
9 10 10 12 12 11 12 15 14 12 12 12 11 11 11 11 11 11 11 11 11 10 10 9 8 7 6 5 5 5 5 5 5 4 4 3 3 3 3 3 2 2
9 9 9 10 11 10 11 13 14 13 12 12 12 12 12 12 11 11 11 11 10 10 10 10 9 7 7 6 5 5 5 5 5 4 4 4 4 4 4 4 4 4
9 9 8 9 10 9 9 11 12 12 12 12 13 13 13 12 12 12 11 10 10 10 10 10 9 8 7 7 7 7 7 6 5 5 5 5 5 6 6 6 6 6
9 9 9 10 10 8 8 9 11 12 13 12 12 13 13 13 12 12 12 11 10 10 9 9 9 8 7 8 8 8 8 7 6 6 7 7 7 7 7 8 8 8
8 9 10 11 11 9 9 10 13 15 14 13 12 12 12 11 11 11 11 11 10 9 9 9 8 8 9 9 9 8 8 7 7 7 8 8 7 7 7 7 8 8
7 7 8 10 11 10 10 12 15 15 13 13 13 12 10 10 11 11 10 10 9 9 9 9 9 10 11 11 10 9 8 7 7 7 7 7 7 7 7 7 7 7
5 5 6 8 9 10 11 13 13 13 12 12 12 11 10 11 10 10 10 10 9 9 9 8 8 10 11 10 10 11 10 8 7 7 7 7 7 7 6 6 6 6
3 4 5 5 6 7 8 10 10 10 10 10 10 10 9 9 9 9 9 8 8 8 8 7 7 9 9 8 8 9 10 9 7 7 7 6 6 6 6 5 5 5
2 3 4 4 5 5 7 7 8 8 9 9 9 9 8 7 7 8 9 9 8 8 7 6 6 7 7 6 6 6 7 7 6 5 5 5 5 5 5 4 4 4
2 2 2 3 3 4 6 7 8 8 8 8 8 8 9 8 8 9 9 8 7 6 5 4 5 6 6 6 6 6 7 7 6 4 4 4 3 3 3 3 2 2
3 2 2 2 3 4 5 7 8 8 8 9 9 9 10 9 8 8 8 8 9 9 7 7 7 8 8 7 7 6 6 6 5 4 4 3 4 4 3 3 2 1
3 2 2 3 3 5 5 6 8 8 9 9 9 9 9 8 8 9 10 11 11 11 10 9 8 7 6 6 6 6 5 5 4 5 4 4 4 4 3 3 2 1
3 1 1 3 4 5 6 6 7 8 9 9 10 10 11 12 12 12 12 12 11 10 10 9 8 6 6 5 5 5 5 4 4 5 4 4 4 4 3 4 4 3
3 2 0 2 3 4 5 6 8 8 8 9 10 11 12 13 13 12 11 11 10 10 10 9 9 8 7 6 5 5 5 5 4 4 4 4 4 4 4 3 4 4
3 3 2 2 2 2 3 5 7 9 9 10 10 11 12 12 12 12 11 11 10 10 10 10 9 9 9 8 7 7 7 5 3 4 5 4 4 5 5 4 3 3
4 4 4 4 3 2 2 4 6 8 10 12 11 11 12 12 12 12 12 12 12 12 12 10 9 9 9 8 7 7 7 6 4 4 5 5 5 6 6 6 6 4

ECMWFNIL_925_spd_045.txt.gz
Wind_Speed
8 8 8 9 10 10 10 10 11 11 11 11 11 11 10 10 9 9 9 9 9 9 8 8 8 8 8 8 9 9 10 10 10 10 10 10 10 11 10 10 9 9
8 8 8 8 9 10 10 10 11 11 11 12 12 11 11 10 10 9 9 9 9 9 8 8 8 8 8 8 9 9 9 10 10 9 10 10 10 10 10 10 9 9
10 9 8 8 9 11 11 11 10 10 11 12 13 12 11 11 10 10 9 9 9 8 8 8 8 8 8 8 9 9 9 10 9 9 9 9 9 9 9 9 9 9
12 11 9 9 10 11 11 11 11 10 11 12 14 13 12 11 11 10 10 9 9 8 8 8 8 8 9 8 9 9 9 9 9 8 9 9 9 9 9 9 9 10
13 12 10 10 11 12 12 12 11 11 11 12 14 14 14 13 12 11 10 9 9 8 8 8 8 8 8 8 8 9 9 8 8 8 8 8 8 8 8 8 9 9
14 14 13 12 13 12 12 12 11 11 11 12 13 13 14 14 13 12 11 10 9 9 8 8 7 7 7 7 7 7 8 8 7 7 8 7 7 7 7 7 8 8
15 15 14 13 14 14 12 12 11 11 11 11 11 12 13 14 13 13 12 11 11 10 9 8 8 8 7 7 7 7 7 7 6 6 7 7 6 6 6 6 7 7
15 14 13 13 14 15 13 12 12 12 11 11 11 12 13 13 13 13 12 12 11 10 10 9 8 8 7 7 7 7 6 6 5 5 6 6 5 5 6 5 5 6
14 13 13 13 14 15 14 13 12 12 12 11 11 12 13 13 13 13 13 12 12 11 11 10 9 8 7 7 7 7 6 6 5 5 5 5 4 4 5 5 4 4
12 12 13 14 13 14 14 14 13 13 13 12 11 12 13 13 13 13 13 13 12 12 12 11 10 9 8 8 7 7 7 7 6 6 5 4 4 4 4 4 4 3
12 13 13 13 13 12 13 15 14 13 13 13 12 12 12 12 13 13 13 13 12 12 12 11 11 10 9 9 8 7 7 7 7 6 6 5 5 5 4 4 4 3
12 13 13 13 14 12 12 14 15 14 14 13 12 12 12 12 13 13 13 13 12 11 12 12 11 11 10 10 9 9 8 8 7 7 7 6 6 6 6 6 5 5
12 13 12 12 14 14 13 13 14 14 14 13 13 13 13 13 13 13 12 12 11 11 11 11 11 10 10 10 9 10 9 9 8 9 8 8 8 8 8 8 7 7
12 13 12 12 13 13 12 11 12 12 12 13 14 14 15 14 14 13 13 12 12 13 12 11 11 10 10 10 9 9 10 10 11 11 10 11 11 11 10 10 9 8
10 12 11 11 11 11 11 11 10 11 11 12 12 13 15 15 14 14 14 13 14 14 13 12 11 10 10 10 10 9 10 11 12 12 12 13 13 13 12 12 11 10
8 9 9 9 9 10 10 10 10 10 11 12 11 11 11 13 13 14 14 14 14 13 12 11 10 11 11 12 13 11 11 11 12 13 14 14 14 15 14 13 11 10
6 6 7 9 9 8 8 9 9 9 9 11 12 12 11 11 11 11 13 13 12 12 14 13 10 10 13 15 16 16 14 13 13 13 14 15 15 14 12 12 11 9
5 4 5 7 7 6 6 6 7 8 8 10 14 15 13 11 11 11 13 14 12 14 17 16 12 11 12 14 15 16 17 16 15 12 11 12 13 11 7 7 8 7
5 4 4 5 5 5 5 4 5 7 8 9 11 12 11 12 13 12 13 12 11 13 11 8 8 10 11 12 13 13 14 16 15 11 7 8 9 7 6 7 8 7
4 4 4 4 4 4 5 5 5 5 6 8 10 11 12 14 13 12 11 10 11 12 7 3 5 9 10 9 10 9 9 11 12 9 7 7 8 9 9 8 6 5
4 3 3 2 3 3 4 6 6 7 8 10 10 11 12 12 11 10 10 10 10 11 10 8 9 9 9 9 8 8 8 8 8 7 7 8 8 7 6 5 5 3
5 3 2 1 1 1 2 4 5 7 9 9 9 10 9 9 10 10 10 9 8 10 12 13 12 10 10 9 8 8 8 7 6 6 6 7 6 5 5 4 5 4
5 4 2 1 1 2 3 3 3 5 6 7 8 9 8 8 10 10 10 9 9 10 10 12 13 13 11 10 9 9 9 8 7 7 6 5 5 5 4 4 5 4
5 5 4 3 3 4 3 3 3 4 5 6 6 7 7 7 8 9 9 9 11 11 10 11 12 12 11 11 11 10 11 10 8 7 6 5 5 5 3 3 6 6
5 5 5 5 5 5 4 4 5 5 6 6 6 7 7 8 9 9 10 11 11 11 10 10 11 12 12 11 11 12 12 11 9 7 7 5 5 6 4 3 5 7
5 5 5 6 7 6 5 5 6 6 6 7 7 8 9 9 10 11 11 11 10 11 12 10 10 12 12 12 12 12 12 11 8 6 7 6 6 7 7 6 5 5

ECMWFNIL_925_spd_048.txt.gz
Wind_Speed
17 15 15 13 11 10 10 9 9 9 8 9 10 9 9 9 9 10 11 11 11 11 11 11 11 11 12 13 13 14 14 15 15 15 16 16 15 15 15 14 14 13
17 16 15 14 12 11 10 9 9 9 9 10 11 10 10 10 9 10 11 11 11 11 10 10 10 11 11 12 13 14 14 15 15 14 15 16 15 15 14 14 14 13
16 15 15 14 13 12 11 10 9 9 10 11 11 11 11 10 10 10 10 10 11 11 10 10 10 11 11 11 12 13 13 14 14 14 15 15 14 14 14 14 14 15
15 14 13 12 13 13 12 11 9 9 10 11 12 12 12 11 11 11 10 10 11 11 10 10 10 10 11 11 12 12 12 12 12 13 14 14 14 14 14 14 14 15
14 14 13 12 14 14 12 11 10 10 10 12 12 12 11 12 11 11 11 10 10 11 10 11 11 11 10 11 11 11 11 11 11 12 13 13 13 13 13 13 13 13
14 14 13 13 14 14 13 12 11 10 10 11 12 12 12 12 11 11 11 11 11 11 10 10 10 10 10 10 10 10 10 10 10 10 11 12 12 12 12 12 12 12
16 16 15 15 15 15 14 13 12 11 11 11 12 12 12 12 11 11 11 11 11 11 10 10 9 9 9 8 9 9 9 9 8 9 10 10 10 10 10 11 11 11
18 19 18 16 17 17 16 15 14 13 12 12 12 12 12 11 11 11 11 11 11 11 10 10 9 9 8 8 8 8 8 7 7 8 8 8 8 8 9 9 9 9
19 20 20 18 18 19 18 17 16 15 14 13 12 12 12 11 10 11 11 11 11 10 10 10 9 9 8 8 8 8 7 6 6 6 7 7 6 7 7 7 7 8
18 18 20 19 18 20 19 18 18 18 17 15 12 12 12 11 11 11 11 10 10 10 10 9 9 9 8 8 8 7 7 6 6 5 5 5 4 4 5 6 6 6
18 19 21 21 21 21 21 20 20 19 19 16 13 12 12 12 12 12 11 11 10 10 10 10 9 9 8 8 8 7 7 6 6 5 5 4 3 3 3 4 4 4
21 24 25 24 22 20 19 19 19 18 19 17 14 14 14 12 13 12 12 12 11 10 10 9 9 8 8 8 8 7 7 7 7 6 6 5 4 4 3 3 3 3
20 23 22 20 19 18 18 20 20 18 17 16 14 13 13 12 13 12 12 12 11 10 10 9 9 8 8 9 8 7 7 7 6 6 6 5 5 5 4 4 4 4
16 14 11 10 12 13 11 10 12 13 12 13 13 13 12 12 12 12 12 11 9 8 7 6 6 4 3 4 6 6 7 7 6 6 6 5 4 4 4 4 3 5
13 12 11 11 12 11 7 3 7 8 8 8 8 10 11 12 12 11 11 10 9 7 6 5 4 3 4 4 5 7 8 9 8 6 5 4 5 6 7 7 6 7
13 12 14 13 11 11 11 10 12 12 12 9 5 6 8 10 11 11 10 9 7 5 3 3 3 2 5 6 7 7 7 8 7 7 8 8 9 11 12 10 8 6
11 12 13 12 11 11 12 12 12 13 13 12 8 7 8 8 10 10 8 7 6 4 5 5 4 7 10 10 8 7 8 8 5 5 9 12 12 14 14 12 10 9
9 10 10 9 8 8 8 9 10 10 9 9 9 10 11 10 8 7 6 5 5 6 7 9 11 15 17 17 15 12 12 12 8 6 9 11 11 13 13 9 10 12
8 8 8 8 7 6 6 5 6 7 7 8 10 13 14 13 11 9 7 4 4 6 8 9 12 15 18 19 17 14 15 16 13 11 13 13 11 10 10 9 9 11
8 8 8 8 7 7 7 6 5 6 7 7 10 13 15 15 15 13 10 7 4 5 7 8 10 12 15 16 15 15 16 16 13 12 13 12 9 6 8 10 11 11
8 7 7 7 7 8 8 7 8 9 10 10 12 14 14 15 15 14 13 11 9 8 9 12 14 14 14 14 13 14 13 11 11 11 10 9 7 7 8 9 10 10
9 6 5 5 7 8 9 10 10 9 10 11 11 11 10 11 12 12 13 12 11 12 13 15 16 16 14 13 12 11 10 9 10 9 9 10 10 9 9 10 10 9
12 10 8 6 4 2 3 8 9 7 7 8 9 9 9 10 10 11 12 12 12 14 14 13 14 16 14 12 11 11 10 11 11 9 11 12 11 10 10 13 12 9
13 13 12 10 10 10 8 5 4 4 5 6 6 7 9 11 11 11 11 11 13 14 12 11 13 15 13 12 12 12 12 13 13 12 13 13 14 10 9 12 13 9
12 13 13 13 14 14 13 10 7 4 1 4 5 5 8 10 9 8 9 11 13 13 13 13 12 13 15 15 14 14 13 15 15 15 12 15 17 12 9 10 11 10
11 12 12 12 14 14 13 11 10 10 9 5 4 6 9 10 11 11 11 12 14 17 19 19 15 15 18 17 16 17 16 17 19 16 11 13 17 14 12 10 9 10

ECMWFNIL_925_spd_051.txt.gz
Wind_Speed
23 22 21 21 21 20 20 19 18 18 19 19 18 17 16 16 17 17 16 16 16 15 16 16 17 17 16 16 16 16 15 14 14 15 16 18 17 16 15 16 16 14
21 21 20 21 20 19 19 18 17 19 20 20 19 18 18 17 17 17 18 18 18 16 15 15 16 16 16 17 17 17 17 16 16 16 17 17 17 17 16 16 18 18
20 20 20 21 20 19 19 17 17 20 21 20 19 18 17 17 17 18 18 18 17 17 16 15 15 15 16 16 17 17 17 17 16 16 17 17 16 15 14 14 15 17
19 19 19 20 20 19 19 18 18 20 20 19 19 18 16 17 17 17 17 17 17 17 17 16 16 16 16 17 17 18 18 17 17 17 18 17 16 15 15 15 15 15
19 18 19 21 20 19 18 18 18 19 19 18 18 17 17 17 16 16 17 17 17 17 17 17 17 17 17 17 18 18 17 17 17 18 19 17 15 15 16 16 16 15
18 17 20 21 21 20 18 17 17 18 18 17 17 17 16 16 15 15 16 16 16 18 18 18 17 17 17 18 18 18 18 17 16 16 17 16 15 14 14 15 15 14
17 16 20 22 20 20 18 17 16 16 16 16 16 16 16 15 14 14 14 14 16 17 17 17 16 16 16 17 18 17 16 15 14 14 15 15 15 13 13 14 14 14
16 16 19 20 19 19 18 16 15 15 15 15 15 15 15 14 13 13 13 13 14 15 14 15 15 15 15 16 16 16 15 15 15 15 15 15 15 14 13 12 13 13
16 15 17 17 16 16 15 14 13 13 13 14 14 14 14 13 12 12 12 12 13 13 13 14 14 13 13 15 15 14 14 16 15 14 14 14 14 13 11 10 10 10
17 15 15 15 15 15 14 13 13 13 13 13 12 13 14 13 11 12 12 12 13 12 12 12 13 12 11 13 14 12 12 13 13 12 12 11 12 12 10 9 8 8
15 14 13 14 14 13 13 13 14 14 14 13 12 13 15 12 11 13 12 12 13 12 12 12 12 11 9 10 11 10 10 10 10 10 9 8 10 10 9 8 6 6
11 12 12 15 16 16 15 15 15 14 15 15 12 13 16 13 11 13 12 12 12 12 12 12 12 11 11 11 11 9 9 9 9 9 8 7 9 9 8 8 8 8
11 13 12 15 18 17 17 17 16 14 14 15 12 11 14 12 11 12 11 11 11 12 14 15 14 14 13 14 14 11 11 10 10 11 10 9 9 9 8 8 9 10
11 10 9 12 16 16 15 15 14 11 13 14 12 11 12 11 12 13 11 12 12 13 15 16 16 16 14 14 15 13 12 13 13 13 12 11 9 9 9 8 9 10
6 5 4 7 11 12 11 13 13 11 13 14 12 13 14 13 14 14 13 13 14 13 14 14 14 15 14 14 14 12 10 11 12 12 12 12 11 11 11 9 9 10
5 7 6 5 7 8 9 13 16 14 13 12 11 12 13 14 15 15 13 14 15 12 11 11 10 11 12 12 13 12 10 9 10 11 11 11 11 11 12 12 12 12
3 7 10 9 10 14 15 13 14 14 13 11 10 9 9 10 12 12 11 12 13 13 11 10 9 8 9 10 12 12 10 9 10 10 10 10 11 12 13 13 13 13
2 5 8 7 6 11 13 10 9 11 13 12 12 9 7 7 8 9 9 10 11 12 13 13 11 10 10 10 12 12 10 9 9 9 9 9 11 12 12 12 12 13
4 4 4 4 4 6 10 11 10 10 12 13 11 9 7 7 7 8 8 9 10 11 13 13 13 12 12 12 13 14 12 10 10 11 11 11 12 11 11 11 11 12
8 7 5 5 7 8 9 11 11 11 12 12 11 9 8 8 8 8 8 9 10 11 11 13 13 12 12 14 16 16 14 12 12 12 13 13 13 12 11 11 11 12
5 6 7 6 7 8 9 10 12 13 11 9 8 8 8 9 9 9 10 10 11 12 12 12 13 13 13 13 14 15 15 14 13 13 13 14 12 10 9 9 10 11
9 7 6 5 6 10 13 12 10 8 6 6 7 7 7 8 9 10 11 11 12 13 13 13 14 15 15 14 14 14 14 14 14 13 14 13 9 8 7 8 9 10
18 16 14 12 9 3 6 8 7 5 4 5 6 7 7 9 9 10 11 11 12 13 14 15 16 16 17 17 16 15 14 14 13 13 13 12 9 9 9 9 9 10
19 18 17 17 17 14 9 5 2 4 6 5 4 5 6 7 9 10 10 11 13 14 15 16 16 16 17 17 16 15 14 13 14 14 13 12 11 11 11 11 11 11
17 16 16 16 16 15 13 11 9 7 4 4 6 6 6 6 7 9 10 11 13 13 14 15 15 14 15 16 15 15 15 15 16 15 12 11 13 15 15 15 14 14
13 14 14 14 14 14 13 12 11 10 8 6 5 6 8 9 10 10 10 10 10 12 12 13 13 11 10 12 14 15 15 16 18 16 10 12 19 23 21 19 18 18

ECMWFNIL_925_spd_057.txt.gz
Wind_Speed
23 23 22 21 20 19 18 17 15 14 13 12 10 10 10 8 7 6 7 11 12 10 9 7 5 6 7 6 6 6 6 7 8 8 8 8 8 9 10 11 12 12
23 22 22 22 21 19 18 16 15 14 12 10 9 10 10 10 8 7 7 11 13 11 10 8 6 7 8 8 7 7 8 9 10 10 9 9 8 8 9 11 12 13
23 22 22 22 21 20 19 17 15 12 10 9 10 10 10 10 9 8 8 11 13 12 10 7 6 7 8 8 8 8 9 11 12 11 10 10 9 9 9 10 11 13
23 22 22 21 20 20 20 18 16 12 10 10 11 11 11 10 10 10 10 11 12 11 9 7 6 8 9 10 10 10 12 13 14 13 11 12 12 11 11 11 12 13
23 22 21 20 21 21 21 19 16 13 11 11 12 12 11 10 11 12 12 12 12 11 9 7 7 8 10 11 11 12 14 15 14 13 13 15 15 13 13 13 13 13
23 22 21 21 21 21 21 20 17 14 12 11 12 12 11 10 12 14 13 12 11 10 8 7 7 8 9 11 12 12 13 13 13 12 13 14 15 15 15 15 15 14
23 22 21 21 21 20 20 19 17 15 13 13 12 11 10 11 13 14 13 12 10 9 8 8 8 8 8 9 11 12 11 11 10 11 12 13 13 14 15 14 15 15
21 21 21 21 21 20 20 19 17 16 15 14 13 11 11 12 13 14 13 12 10 9 8 9 9 9 9 10 11 11 11 10 10 11 12 13 13 13 13 12 13 14
21 20 20 20 21 21 20 19 18 17 16 15 13 12 12 13 13 14 13 12 11 10 9 10 10 10 9 10 11 12 11 11 10 10 10 11 11 11 11 11 10 11
20 20 20 20 21 20 19 20 19 18 18 16 13 12 13 13 13 14 14 12 12 11 10 10 10 10 10 9 10 11 11 10 9 8 8 8 8 8 9 8 9 9
20 21 21 21 21 19 19 20 18 18 18 15 13 13 14 14 15 16 16 14 13 12 11 11 11 11 10 10 11 10 10 9 9 8 8 7 7 7 6 6 6 7
21 23 23 23 21 18 16 15 15 18 18 15 14 15 16 16 16 17 17 16 15 14 13 12 12 12 12 11 11 11 11 11 10 9 9 9 9 8 6 6 5 6
24 26 25 24 21 15 10 11 14 17 17 16 16 17 18 18 18 16 16 17 17 17 15 13 12 12 12 12 11 12 13 13 12 11 11 10 10 9 8 7 7 7
27 28 25 22 16 9 9 12 14 16 18 19 19 19 19 20 18 16 16 16 17 16 15 14 13 13 13 13 13 13 14 15 14 13 13 12 12 11 10 9 8 7
29 29 27 22 16 15 16 18 17 19 21 22 21 20 21 21 19 18 17 16 16 16 16 16 16 15 15 15 15 15 15 16 15 15 15 14 14 13 12 11 10 9
26 27 24 21 20 21 22 21 20 21 22 23 22 22 22 22 21 19 19 19 18 17 18 18 19 18 17 17 18 18 17 17 17 17 17 16 15 14 14 13 12 11
18 20 19 19 22 23 22 20 20 19 20 21 21 21 21 22 21 18 17 18 18 18 19 20 21 21 20 19 20 20 20 19 19 20 20 18 17 16 16 16 15 14
13 15 14 15 18 20 21 19 16 16 16 16 18 17 17 19 21 19 17 17 18 17 17 19 22 23 23 23 22 22 22 21 21 22 21 17 17 18 18 17 17 16
12 11 12 13 15 16 16 15 14 14 13 12 12 12 12 13 16 18 18 18 18 17 17 19 21 24 24 23 22 22 22 21 22 24 23 20 20 21 20 19 19 18
13 12 13 14 14 12 10 9 9 10 10 9 8 8 7 7 9 12 14 15 14 14 15 16 17 19 20 19 20 21 22 22 23 24 24 23 22 22 22 22 21 20
19 17 15 13 13 11 10 8 6 6 6 6 6 6 6 5 5 8 9 10 11 12 13 14 14 15 17 19 20 21 21 23 23 23 23 22 21 22 22 22 21 20
25 23 21 18 18 18 18 15 10 6 4 4 5 5 5 4 5 6 5 8 11 12 14 15 15 15 16 17 18 19 20 22 23 23 22 22 22 22 22 22 21 21
26 26 25 23 22 21 21 19 17 14 10 7 5 3 2 1 2 4 4 7 10 12 14 15 14 15 16 15 16 19 20 22 23 23 23 23 23 24 24 23 22 21
24 24 23 23 23 22 21 19 18 17 14 12 10 9 7 5 2 1 3 6 9 10 13 13 12 13 15 16 17 18 19 20 21 21 22 22 23 23 23 23 22 21
22 22 22 21 21 20 19 18 17 15 13 12 11 10 9 7 6 4 3 2 4 6 8 10 11 11 13 15 16 17 18 19 20 21 22 23 23 23 23 23 22 21
19 19 19 19 18 17 16 15 14 13 12 11 10 9 8 7 7 7 6 6 5 6 6 6 8 10 11 12 14 15 16 18 19 21 23 24 23 23 23 23 23 21

ECMWFNIL_925_spd_060.txt.gz
Wind_Speed
23 24 24 24 23 22 21 19 18 17 17 15 13 12 11 10 9 9 11 11 10 9 6 3 3 4 5 5 4 4 5 6 6 5 6 6 7 9 10 11 11 10
24 25 25 24 23 22 21 19 17 16 15 14 13 13 11 10 9 8 10 12 11 10 7 4 3 4 4 5 5 4 5 6 6 6 5 6 6 8 9 10 10 10
25 26 25 23 23 22 20 17 15 14 13 13 14 13 12 10 8 7 8 11 12 10 8 6 4 4 4 5 4 4 6 6 6 5 5 5 5 6 7 8 10 10
25 25 23 21 20 20 18 17 16 14 13 13 13 13 12 10 8 7 7 11 11 9 9 7 5 5 5 5 4 4 6 7 6 5 5 4 4 4 5 7 8 9
24 23 20 19 19 19 19 17 17 15 13 13 13 13 12 10 9 8 8 10 11 9 8 6 6 6 6 6 5 5 7 8 6 5 5 5 4 3 4 5 6 7
22 21 19 19 20 20 20 18 16 14 12 12 12 12 11 8 8 9 8 10 10 9 7 5 5 6 7 7 7 8 9 9 7 6 6 6 5 4 4 5 6 7
21 20 19 19 20 19 18 17 16 13 10 10 11 11 10 8 8 10 9 9 9 8 6 4 5 7 8 9 9 10 11 9 8 7 7 7 6 5 6 6 7 7
20 20 19 19 19 18 17 16 15 13 10 10 10 11 10 8 10 11 10 9 8 7 6 5 5 6 8 10 10 10 10 9 7 7 7 7 7 6 6 7 8 8
21 21 20 19 19 18 17 17 15 13 11 10 10 11 10 10 11 11 10 9 8 6 6 6 7 6 7 9 10 9 9 8 7 7 7 7 7 7 7 6 7 8
22 21 20 20 19 18 18 17 16 14 12 11 10 11 10 10 11 11 10 9 8 7 6 7 7 7 6 8 9 9 8 7 7 6 6 6 6 6 6 5 6 6
22 22 21 20 19 18 18 18 17 15 13 12 11 11 10 10 10 10 9 9 8 7 7 6 6 6 6 7 8 8 8 7 6 6 5 5 4 4 4 4 3 4
21 21 20 20 20 19 19 18 18 17 14 12 12 11 10 9 8 7 7 8 8 7 7 6 6 6 6 5 6 7 7 7 6 5 4 4 4 4 3 3 2 2
19 20 19 19 19 18 17 16 17 16 13 14 13 11 9 8 6 6 6 7 7 7 7 6 6 6 6 6 6 6 6 6 6 5 4 4 4 4 3 2 2 2
19 18 18 18 17 16 15 14 13 11 10 11 13 10 8 6 5 4 5 7 8 8 8 8 7 6 6 7 7 5 5 6 7 6 5 5 5 5 4 3 2 2
19 20 20 20 18 15 13 10 8 9 8 9 8 7 8 8 5 5 6 7 8 9 11 11 9 8 7 7 7 6 6 6 6 6 6 6 6 7 7 6 5 4
18 21 22 21 18 15 12 7 5 7 9 8 6 6 10 11 8 7 8 8 9 10 12 12 12 10 9 8 8 8 8 8 8 8 8 9 9 9 8 8 8 8
13 15 17 17 15 14 12 11 12 13 14 11 9 10 13 13 11 11 11 11 11 12 13 13 13 12 12 11 10 10 10 10 11 11 11 12 12 11 10 10 10 11
12 12 13 13 12 12 13 13 13 15 15 13 12 13 14 14 13 13 13 13 12 13 15 15 14 13 13 14 13 13 13 13 13 14 14 13 13 13 12 12 12 13
11 11 11 10 10 10 11 11 10 9 9 8 8 10 11 12 12 12 13 14 13 13 14 15 15 15 15 16 17 16 16 16 16 16 16 16 16 16 16 15 15 16
11 11 10 10 10 10 9 9 9 7 6 5 5 6 7 8 9 10 11 12 12 12 12 12 14 15 16 17 17 18 18 18 18 18 18 18 18 19 19 19 18 19
14 13 11 10 10 9 9 8 8 7 7 7 6 5 5 5 5 5 6 7 7 8 8 7 8 10 11 11 11 12 14 16 16 17 18 19 20 20 21 21 21 21
20 18 16 14 13 11 10 8 7 7 8 7 6 5 4 4 3 2 3 5 5 5 6 6 7 7 6 6 8 10 12 14 15 16 17 19 21 22 22 23 23 23
23 22 21 19 18 17 15 12 10 8 7 5 5 4 3 3 3 3 3 4 3 4 5 5 7 9 10 10 11 12 12 12 13 15 17 19 21 21 22 23 24 24
23 23 22 21 21 21 19 17 15 12 10 8 6 5 4 3 3 3 3 3 2 3 4 5 6 10 12 12 11 12 12 11 12 15 17 19 21 21 21 22 23 24
22 21 20 20 19 19 19 18 18 17 15 13 11 10 9 8 7 6 4 3 2 1 3 3 4 7 10 10 9 10 11 10 11 14 16 18 19 20 20 21 22 23
20 20 19 18 17 15 14 14 13 13 13 13 13 13 12 12 12 11 10 10 9 6 4 3 2 3 5 6 7 9 10 10 11 13 15 17 18 19 19 20 21 22

ECMWFNIL_925_spd_063.txt.gz
Wind_Speed
24 23 22 21 21 20 20 21 21 20 17 15 15 14 13 12 10 8 9 8 6 6 6 6 6 6 6 6 6 5 6 5 5 4 4 4 5 6 7 7 7 6
24 23 22 20 20 19 19 20 20 18 16 15 15 14 13 12 10 10 11 10 8 6 5 5 6 7 6 6 6 5 6 6 5 4 4 4 5 6 6 7 7 6
24 23 21 19 19 20 20 20 19 17 16 15 14 13 12 11 11 11 12 11 10 8 6 6 6 6 6 6 6 7 7 7 6 5 5 5 5 6 6 7 7 6
22 21 20 19 19 20 20 20 19 17 16 15 13 12 12 12 11 11 12 12 11 9 7 6 6 5 4 4 5 7 7 7 6 5 5 5 5 6 6 7 7 7
22 21 20 19 20 19 19 18 18 16 15 14 12 12 12 12 11 10 12 13 11 9 7 6 5 4 4 4 5 6 7 6 5 5 5 5 5 5 6 7 7 8
23 22 21 20 20 19 18 17 16 15 15 13 13 12 11 11 10 10 12 14 12 10 7 6 5 4 5 4 4 5 6 6 6 6 6 6 6 6 7 7 8 8
23 22 22 21 20 20 18 17 16 14 13 13 13 13 11 11 11 11 12 13 12 9 7 6 5 5 7 6 5 6 7 7 6 6 6 7 7 8 8 9 9 9
23 23 23 22 21 19 18 17 16 13 12 12 14 13 11 10 12 12 12 13 11 9 7 6 6 6 8 7 5 6 7 6 5 5 6 7 8 8 9 9 10 10
24 23 23 21 20 19 18 17 15 13 12 13 14 13 11 11 12 12 12 12 10 9 7 7 6 7 7 6 6 7 6 5 4 3 4 6 7 8 8 8 8 9
23 22 22 21 20 19 18 16 14 12 12 13 13 12 11 11 12 12 11 11 10 8 7 7 6 6 6 6 5 5 5 4 3 3 3 5 5 6 7 7 7 7
21 21 21 20 19 19 17 16 14 12 12 12 11 10 11 12 12 11 10 10 9 8 8 8 7 6 5 6 5 5 5 4 5 5 5 6 6 6 7 7 6 6
20 20 20 20 19 18 17 16 15 13 12 12 11 10 11 11 11 10 9 8 7 7 8 8 7 6 5 5 5 5 5 5 5 5 5 6 6 6 6 6 6 6
19 19 20 20 19 18 17 16 15 14 12 11 10 9 10 10 9 8 7 7 6 6 8 7 7 7 6 5 5 5 5 4 4 4 4 4 5 5 5 5 5 5
18 18 18 18 17 16 14 13 13 13 11 9 9 9 9 9 8 6 6 6 5 5 6 7 7 7 6 5 4 4 3 3 3 3 3 4 3 3 2 3 3 3
16 16 16 16 16 15 14 13 12 11 10 8 7 7 7 7 7 6 5 4 4 4 5 6 7 6 5 4 3 2 1 2 3 4 4 4 3 3 2 2 2 2
16 17 18 18 18 18 17 15 12 10 9 7 6 6 5 5 5 5 3 1 2 3 4 5 5 5 4 4 3 3 3 3 3 5 5 5 5 4 4 4 4 4
18 20 21 20 20 20 18 15 11 7 7 6 5 3 4 6 5 2 2 3 4 3 3 4 5 5 4 5 5 5 5 5 5 6 6 6 6 6 5 5 5 5
16 17 17 16 16 15 14 11 7 7 8 8 7 6 6 6 5 2 4 7 7 5 4 4 5 5 5 6 7 8 8 8 7 7 8 8 8 7 6 6 6 6
12 12 11 9 8 9 9 8 8 9 10 10 9 7 6 4 3 4 7 9 9 8 6 6 5 5 6 7 8 10 11 11 11 10 10 10 9 8 8 8 8 9
10 11 10 9 8 7 7 7 7 7 6 6 7 6 5 3 4 5 7 8 8 8 7 6 5 5 7 8 9 10 11 12 13 13 12 11 11 11 11 10 10 11
13 13 13 12 11 11 10 10 9 9 8 7 7 7 6 5 5 5 5 5 6 6 5 4 3 2 3 4 5 6 7 8 10 11 11 12 12 12 11 11 11 12
16 15 14 14 13 13 12 12 11 9 9 8 8 8 8 8 7 6 6 5 4 4 4 3 2 1 1 2 2 3 4 4 6 7 8 10 11 12 12 12 12 14
22 20 18 16 15 14 14 13 12 11 10 9 8 8 8 8 8 7 6 5 4 3 3 3 1 1 3 3 4 5 5 6 6 7 8 9 11 12 12 13 14 15
25 24 23 22 20 20 19 18 17 16 14 12 12 12 11 10 9 8 7 6 5 4 4 4 2 2 4 4 6 7 8 8 10 10 10 10 12 13 13 14 14 15
23 22 22 22 21 21 20 20 21 21 20 19 18 18 17 15 13 11 11 11 9 8 6 6 5 3 4 4 3 5 6 7 8 10 10 10 11 13 14 15 15 15
21 20 19 19 17 16 15 15 15 16 16 17 18 18 18 17 15 14 14 13 12 11 10 9 8 7 6 6 4 3 4 5 6 7 8 8 9 11 12 13 13 12

ECMWFNIL_925_spd_069.txt.gz
Wind_Speed
19 19 19 16 15 19 17 14 13 11 11 10 10 10 10 10 10 9 8 7 5 4 3 3 4 5 5 5 5 5 5 5 6 6 6 7 8 7 8 8 7 6
22 22 20 18 18 18 15 13 12 11 10 9 9 10 10 11 10 10 9 8 7 5 4 3 3 4 4 5 4 4 5 5 6 5 5 7 7 8 8 8 7 6
23 22 20 18 18 16 14 13 11 11 10 9 10 10 10 11 10 10 9 8 7 5 4 4 4 3 4 5 5 4 5 5 5 5 6 6 6 6 7 8 7 6
25 23 20 18 17 16 14 13 12 11 10 10 10 10 10 10 10 10 10 8 7 5 5 5 4 4 4 5 5 5 5 5 5 5 6 6 6 6 7 7 7 7
24 23 20 18 17 16 15 14 13 12 11 11 11 11 10 11 11 10 10 8 7 6 6 6 5 5 5 5 6 6 6 5 5 5 5 5 5 6 7 6 7 9
23 21 20 18 17 16 16 15 14 13 12 11 11 11 10 11 11 10 10 9 8 7 7 7 6 6 5 6 7 6 6 5 5 5 4 5 6 6 7 7 8 9
22 21 19 17 16 16 15 15 14 13 12 11 10 10 11 11 10 10 10 9 8 8 8 8 7 7 6 7 7 6 6 6 5 5 4 6 7 7 8 9 10 10
21 21 19 18 17 17 16 15 14 13 12 11 10 10 10 10 10 10 10 9 8 8 8 9 8 7 7 7 7 7 6 6 6 6 5 6 8 9 9 9 10 12
20 20 19 18 18 18 16 15 14 13 12 11 10 10 10 9 9 10 10 9 8 8 8 9 9 8 7 7 8 8 7 6 6 6 6 7 8 9 9 9 10 11
20 21 20 19 18 17 17 16 15 13 12 11 10 10 9 9 9 10 11 10 9 8 8 9 9 9 8 8 8 8 7 7 7 7 7 7 8 8 8 9 10 11
19 21 21 20 19 18 17 17 16 14 13 11 11 11 9 9 10 10 11 10 9 9 9 9 10 10 9 9 8 8 8 8 7 7 7 8 9 8 9 9 10 11
19 21 21 19 19 18 18 17 15 14 13 12 11 11 10 9 10 10 10 10 9 9 9 9 10 10 10 9 8 8 8 8 8 7 7 8 9 9 9 9 9 10
13 16 19 19 18 18 18 17 15 13 13 12 11 11 10 10 10 9 9 9 9 8 9 9 9 10 10 9 9 8 8 8 8 8 8 8 7 8 9 9 9 9
7 9 12 15 16 16 16 15 14 13 12 11 11 11 11 10 10 9 9 8 8 8 8 9 9 9 9 9 9 8 8 8 8 8 8 8 7 7 7 7 8 8
10 11 11 12 13 14 15 14 14 13 12 11 11 11 10 10 9 9 8 8 9 8 8 9 8 8 9 8 8 8 8 8 8 8 8 8 7 8 7 6 6 6
13 16 16 13 12 13 14 14 13 12 12 11 11 10 9 9 9 8 8 8 9 8 9 8 6 7 9 8 8 8 6 7 7 7 7 7 7 7 6 6 6 5
17 17 16 13 12 12 13 13 12 12 13 12 11 10 9 8 8 8 7 7 9 8 8 7 6 6 9 8 7 6 5 4 5 6 6 6 6 6 6 6 6 5
19 17 14 13 15 15 14 14 12 12 13 13 12 11 10 9 8 7 6 5 7 8 8 7 7 7 8 7 5 5 3 3 3 5 6 6 6 6 7 7 7 6
19 19 17 16 17 17 17 16 15 14 13 13 13 11 10 9 7 6 6 6 6 7 8 7 6 7 7 5 5 5 4 3 3 3 6 8 7 7 8 7 7 8
17 18 18 17 17 17 16 15 15 14 13 13 13 11 9 9 7 5 5 4 4 3 5 5 5 5 4 3 4 5 6 7 7 6 5 7 8 8 8 8 7 8
15 15 16 15 15 15 14 12 11 11 10 9 9 7 7 7 7 7 7 5 3 5 6 5 5 4 3 3 5 6 6 8 8 7 6 7 9 8 7 7 7 8
15 15 15 14 13 13 12 11 9 8 7 6 5 6 6 7 8 9 8 7 5 5 6 6 5 5 5 6 6 6 6 6 6 7 7 8 10 9 8 8 9 8
16 16 15 14 13 12 12 12 9 8 8 7 6 7 8 9 11 12 12 11 8 6 6 6 6 6 6 6 5 5 6 5 4 7 8 8 9 9 7 10 11 7
17 18 18 16 14 13 13 13 12 10 9 9 10 10 9 8 9 10 12 12 10 7 6 6 6 5 4 4 4 4 4 4 3 6 9 8 9 8 7 7 9 7
17 18 18 17 16 15 13 13 12 11 10 11 12 13 12 10 10 10 10 10 10 10 9 8 8 7 5 3 2 2 2 2 2 6 8 8 8 8 5 4 4 3
17 17 16 16 16 15 14 14 14 13 12 13 14 14 13 12 12 12 11 10 10 12 11 10 10 10 8 7 5 3 4 4 4 4 4 4 6 6 6 5 4 1

ECMWFNIL_925_spd_072.txt.gz
Wind_Speed
27 28 28 27 26 24 23 22 19 16 14 14 14 12 11 11 10 9 9 9 7 7 8 7 7 8 7 6 5 5 5 6 5 5 7 7 7 8 9 7 6 6
26 27 27 26 25 23 23 22 18 15 14 14 13 12 11 11 10 9 9 8 8 8 7 7 7 8 7 7 7 6 4 6 6 6 7 7 8 9 9 9 8 8
27 27 26 24 24 24 23 19 16 15 15 14 14 13 12 12 11 10 9 8 8 8 6 7 7 8 7 7 8 7 5 6 6 6 7 8 7 8 9 9 10 9
26 28 26 23 24 24 21 17 16 15 14 14 14 13 13 13 11 11 9 8 8 7 6 7 7 7 8 7 8 7 6 6 6 6 7 7 8 8 9 10 11 9
24 27 27 24 23 21 19 18 17 15 14 15 14 13 14 13 12 11 10 8 8 7 7 7 7 7 7 7 7 7 7 6 5 6 7 8 9 10 10 11 12 11
23 26 26 24 22 20 20 20 17 16 15 15 14 13 13 13 12 12 10 8 8 7 7 7 7 7 7 8 7 7 7 7 6 6 7 7 9 11 11 10 12 12
24 25 23 21 21 22 22 19 18 17 15 15 15 14 13 13 13 11 10 9 8 7 7 8 7 7 8 7 7 7 7 6 6 5 6 7 8 10 11 11 12 12
24 22 21 20 21 23 21 19 19 18 16 15 15 14 13 13 12 11 10 9 8 8 8 8 8 8 8 7 7 8 7 6 6 5 5 7 7 8 10 12 12 11
22 21 21 21 22 22 19 19 21 19 16 15 14 14 13 11 11 11 9 8 8 8 8 9 8 8 7 7 8 7 6 7 7 5 5 7 7 8 10 11 11 10
22 20 22 22 22 21 20 20 20 18 16 14 13 13 11 9 11 11 9 8 8 8 9 9 9 9 7 8 8 6 6 7 7 6 6 6 7 9 10 11 12 10
21 20 21 22 21 21 21 20 19 17 16 14 13 13 10 9 10 10 10 9 8 8 9 9 9 9 7 8 7 6 6 7 6 8 8 6 6 8 10 12 11 11
20 20 21 21 21 21 22 21 19 17 16 14 13 13 11 10 10 11 10 9 8 8 8 8 9 8 8 8 7 6 6 5 6 8 9 7 7 8 10 11 11 11
20 20 20 20 21 21 21 20 17 16 15 14 13 13 11 10 10 10 10 9 8 8 8 8 8 7 7 7 7 7 6 5 6 7 7 8 9 9 10 11 11 12
22 22 21 20 21 21 20 19 17 16 16 14 13 13 12 10 10 10 9 8 8 8 9 9 8 8 8 7 7 7 7 6 6 6 6 7 8 10 10 10 11 10
21 21 21 22 22 20 19 19 18 17 16 15 15 14 11 10 10 10 9 9 9 9 9 9 9 10 9 7 8 9 8 7 7 6 6 6 6 8 8 9 11 10
21 22 21 22 22 20 18 17 17 17 17 16 15 13 11 10 10 9 9 10 10 11 11 9 9 11 10 8 9 9 7 7 7 6 7 6 6 7 6 6 8 8
22 23 22 22 22 20 18 16 16 17 17 16 15 14 12 12 10 8 8 11 12 11 11 9 8 10 9 8 8 7 6 7 6 5 6 6 6 6 5 4 4 3
23 24 22 21 21 20 18 17 18 17 16 16 16 14 13 13 13 12 12 13 13 12 10 7 6 6 6 6 6 5 6 7 6 5 4 3 4 4 3 3 3 4
23 25 23 21 22 21 19 20 20 20 20 18 16 14 14 15 14 14 15 15 14 12 10 8 5 4 4 3 3 3 4 4 5 6 6 4 2 1 1 2 2 1
22 24 23 21 22 22 22 22 23 23 22 20 17 15 15 15 13 12 12 12 12 12 11 9 7 6 4 3 1 1 1 1 2 4 5 7 7 5 5 6 9 7
21 23 23 21 21 22 22 22 22 23 22 19 17 16 15 14 13 10 9 8 7 7 6 6 5 4 3 2 1 2 2 2 4 5 5 6 8 9 8 6 6 7
20 21 20 19 19 20 20 18 18 18 17 16 15 14 12 12 11 10 8 6 5 5 3 2 3 5 3 1 1 2 4 5 5 5 6 5 5 6 7 7 6 6
21 21 21 20 19 18 18 16 14 14 13 11 11 11 10 11 11 11 9 7 6 5 4 3 4 4 4 1 2 3 4 5 4 4 6 6 6 4 2 5 7 4
22 23 22 21 21 19 18 17 14 14 13 12 11 12 12 12 12 11 10 8 8 8 6 6 6 5 3 2 1 2 1 2 1 3 6 7 9 7 2 4 6 3
23 23 22 21 21 20 18 18 17 17 16 16 16 15 13 12 12 12 12 11 10 9 9 9 10 9 5 3 2 1 1 1 1 4 8 10 10 8 4 4 5 3
22 23 22 22 21 20 18 18 18 18 18 17 16 15 15 15 13 12 12 11 10 9 9 9 11 12 10 8 5 4 4 3 4 5 9 11 11 8 6 6 6 4

ECMWFNIL_925_spd_075.txt.gz
Wind_Speed
22 23 23 23 21 21 22 21 22 23 23 23 23 22 21 21 21 20 19 18 16 16 17 15 14 14 13 14 15 15 14 13 12 12 13 14 15 15 14 14 12 11
19 21 22 21 20 20 21 22 21 22 23 23 23 22 20 20 20 19 19 18 17 17 17 16 14 14 12 13 15 14 14 13 12 13 13 13 14 15 15 15 13 13
17 19 21 21 21 20 21 23 20 19 23 23 22 22 20 20 21 19 18 18 18 16 16 15 14 14 13 13 13 12 14 14 12 12 13 12 13 14 15 15 14 13
18 18 20 21 21 21 22 22 18 19 23 23 21 22 21 20 20 19 17 18 17 14 14 15 15 14 13 12 12 12 12 12 10 11 12 11 11 13 13 14 15 14
18 17 18 20 21 22 22 20 17 20 23 22 22 22 21 20 18 18 18 17 16 14 13 14 14 13 12 12 12 12 12 12 10 10 11 10 10 12 13 15 16 14
18 17 17 18 21 23 22 17 17 22 24 23 23 22 21 20 18 17 17 15 15 14 13 13 13 13 12 12 12 12 12 12 11 10 10 11 11 12 14 15 15 14
18 18 19 19 21 23 19 17 20 24 24 24 24 22 21 20 17 16 14 13 14 14 13 13 13 13 13 11 12 13 12 11 12 11 10 11 12 12 13 13 13 13
19 19 21 20 21 21 18 20 23 25 25 24 24 22 20 18 17 15 13 12 14 14 13 13 13 14 13 12 12 13 11 10 11 12 12 12 13 13 13 12 11 12
20 20 21 21 22 22 21 23 23 24 24 23 22 21 19 17 17 16 14 13 13 13 13 13 12 12 12 12 11 11 11 10 10 12 13 12 13 14 14 13 11 12
19 21 22 22 23 23 25 24 21 22 22 20 21 20 17 16 16 15 14 14 14 13 13 13 11 11 12 12 10 10 11 10 9 11 12 12 13 14 14 13 12 13
22 25 23 22 23 25 26 23 21 21 18 18 21 18 15 17 17 14 14 14 15 13 12 13 11 10 12 11 9 11 11 10 11 11 11 12 13 13 14 14 14 15
23 25 24 21 23 25 25 23 22 22 19 19 20 16 15 18 17 14 14 14 14 12 12 13 12 11 12 10 9 10 9 10 13 12 10 12 13 13 13 14 14 15
21 22 23 22 24 26 25 23 23 22 20 19 17 16 17 18 16 15 15 14 14 14 14 15 13 12 13 12 10 9 10 13 14 11 11 13 13 13 13 12 13 14
20 20 22 23 26 28 25 23 23 22 20 18 18 18 16 15 16 16 14 15 16 16 16 15 14 14 15 13 11 10 12 14 12 11 13 14 14 13 13 13 13 12
21 22 24 22 24 26 24 22 22 20 19 19 19 18 15 14 16 16 15 17 19 18 17 16 16 15 14 13 13 12 11 11 11 12 14 15 15 14 15 15 14 11
22 25 25 21 21 21 20 21 21 19 19 19 18 16 15 16 17 16 18 20 21 20 19 18 18 18 16 15 14 12 11 10 10 11 12 13 14 15 15 14 13 10
23 24 24 22 21 20 19 20 21 21 19 18 17 17 17 17 18 20 23 22 21 22 21 20 20 19 18 17 15 13 12 12 11 11 10 11 13 14 15 14 13 12
22 21 20 20 20 21 23 23 23 22 21 20 20 20 19 19 21 24 24 22 21 21 20 19 19 18 17 16 15 15 14 14 13 12 11 12 13 14 15 15 15 15
24 21 19 19 17 20 26 28 26 26 25 24 23 22 22 23 24 23 22 21 20 19 18 17 16 15 15 14 14 13 13 14 14 14 14 14 14 15 15 15 15 15
25 23 21 20 19 22 28 29 28 28 29 27 26 24 24 25 24 23 22 20 19 18 17 16 14 14 13 13 12 11 11 12 13 13 14 14 13 13 13 12 12 11
27 26 25 24 23 25 28 29 29 29 28 28 26 25 24 23 22 21 20 19 17 15 14 13 12 11 11 12 11 9 8 9 11 12 12 12 12 11 10 10 8 7
28 29 28 28 26 26 27 28 27 26 26 26 25 23 22 20 19 17 16 16 14 11 10 11 9 7 8 9 9 8 6 7 8 9 10 9 9 9 9 9 8 6
25 28 28 28 26 25 26 27 26 23 22 23 22 20 17 15 15 14 13 12 11 10 10 10 8 6 6 7 7 7 6 6 7 8 9 8 9 9 8 8 8 6
22 25 26 26 26 24 24 24 24 21 18 18 19 17 15 13 13 13 13 12 11 11 11 10 10 9 7 7 7 6 7 9 9 10 11 11 11 12 11 9 9 8
21 22 23 23 24 23 22 22 22 19 17 16 16 15 15 14 13 13 14 14 14 14 14 14 15 14 11 9 9 8 9 12 14 14 15 14 15 16 15 12 11 10
22 21 21 21 22 22 22 22 22 21 19 17 17 16 16 15 14 15 17 17 16 16 16 17 17 16 14 12 11 12 12 13 16 18 17 16 15 16 15 14 12 11

ECMWFNIL_925_spd_078.txt.gz
Wind_Speed
23 21 19 19 22 24 25 24 22 23 23 23 23 21 19 20 19 18 17 16 16 16 16 16 15 16 17 16 16 17 17 16 15 14 14 14 15 15 15 15 14 14
20 19 17 17 20 21 22 22 21 22 21 20 21 21 20 21 20 18 18 17 17 17 17 17 17 17 18 17 17 18 17 15 14 14 14 14 16 17 16 15 14 13
19 20 20 20 20 17 16 18 19 20 20 19 19 22 22 23 22 19 19 19 18 18 17 16 16 17 17 17 17 17 15 14 13 13 14 14 15 16 15 13 13 13
22 23 24 23 20 12 9 16 20 19 20 20 21 23 24 23 22 21 20 19 18 19 18 17 16 15 15 16 16 15 14 13 12 13 14 14 14 15 14 14 14 13
21 22 22 22 21 16 13 18 23 21 20 21 22 23 23 23 22 21 21 20 20 19 17 17 16 15 14 14 14 13 13 13 12 13 13 13 13 13 14 14 14 14
20 21 20 20 22 21 18 20 22 21 21 23 25 24 23 23 23 22 22 21 21 20 17 17 16 15 14 14 13 13 13 13 12 13 13 13 13 13 14 15 15 15
19 19 19 19 21 21 19 21 22 22 24 27 26 25 25 25 24 23 22 20 20 19 18 17 16 16 15 15 15 14 14 14 12 12 13 13 13 13 14 15 16 15
21 20 20 20 20 19 19 22 23 24 26 28 26 26 26 25 23 22 21 19 19 19 19 18 17 17 16 16 16 16 15 14 13 12 12 13 13 13 14 15 16 15
22 21 20 19 19 20 20 22 25 26 27 27 27 25 24 24 22 21 20 20 19 19 19 18 17 17 16 16 16 16 16 15 14 13 12 13 14 14 15 16 15 14
20 19 18 19 19 20 22 23 26 28 27 27 28 25 24 24 21 18 20 22 20 18 18 18 18 17 16 16 16 15 15 15 14 14 13 14 14 14 15 16 14 14
19 18 18 21 21 21 22 24 26 28 27 28 28 25 24 22 19 19 21 22 20 18 18 18 17 17 16 16 15 14 14 14 15 16 15 14 14 14 15 14 13 14
20 18 18 22 23 22 23 24 27 28 28 29 28 25 24 22 20 20 21 20 20 19 18 17 17 17 15 15 15 14 13 13 15 17 15 14 14 14 14 13 13 14
20 19 19 22 24 25 26 28 30 31 29 29 27 24 24 23 22 21 21 21 20 18 17 17 18 17 15 15 16 14 13 14 16 16 15 14 14 14 14 12 11 12
22 20 21 24 27 30 31 30 30 29 28 27 24 24 25 23 22 23 23 22 20 18 17 17 18 18 15 15 15 14 14 14 14 16 16 15 14 14 14 11 9 9
21 21 23 25 28 31 31 29 28 27 26 25 23 24 25 23 22 24 23 22 20 19 18 17 18 18 16 14 14 16 17 15 14 16 16 16 16 14 14 14 12 11
21 23 25 26 28 29 29 28 27 26 25 24 24 24 23 23 23 23 22 21 21 20 19 18 18 18 17 16 15 16 17 16 16 17 16 17 18 17 18 17 15 14
24 25 26 27 29 28 27 26 25 25 25 23 22 22 22 23 24 23 24 23 23 22 20 20 20 19 17 16 15 15 16 17 18 18 18 18 18 18 19 18 17 15
27 27 26 27 27 25 24 24 25 27 25 22 23 24 25 26 26 26 27 26 24 24 22 21 20 19 18 16 14 15 16 17 18 19 19 19 19 19 19 17 15 13
28 28 28 27 24 21 22 24 27 28 25 25 27 29 29 29 29 29 28 27 26 25 23 22 21 20 19 18 16 15 16 17 19 20 20 21 21 20 18 17 15 14
27 26 26 25 24 23 23 24 27 29 29 30 32 32 32 31 30 29 28 26 26 25 23 21 21 20 20 19 18 17 17 18 19 20 20 20 19 18 17 16 16 15
24 25 26 27 28 29 29 26 28 31 31 32 34 34 34 32 30 28 26 24 23 22 21 19 18 18 18 18 18 17 18 19 21 22 21 20 18 17 16 15 15 14
21 25 28 30 30 32 32 29 30 31 31 33 36 35 34 33 30 27 25 23 21 20 19 18 16 15 16 17 18 17 17 18 20 21 22 21 20 18 16 14 13 13
20 24 27 29 30 32 32 32 33 32 31 33 35 33 32 32 30 27 23 21 19 17 17 17 15 13 14 16 17 17 16 18 19 20 21 21 20 18 17 15 13 12
19 21 23 27 30 31 31 32 33 32 30 31 32 31 29 29 28 26 23 20 18 17 15 15 14 12 12 14 16 16 15 15 15 17 19 20 19 18 17 16 15 13
19 19 20 24 27 28 29 30 30 28 27 27 28 28 27 26 25 25 24 21 19 17 15 15 15 13 11 11 14 15 14 13 13 15 18 20 19 19 18 16 15 14
21 19 20 23 25 25 27 27 26 24 22 22 24 24 24 24 24 24 24 22 20 19 17 16 16 15 13 12 13 14 14 15 16 18 20 22 20 20 19 18 16 15

ECMWFNIL_925_spd_084.txt.gz
Wind_Speed
18 21 22 19 19 22 22 22 21 22 23 23 23 22 20 19 19 19 18 18 18 18 19 19 20 20 20 19 19 19 18 18 18 17 17 17 17 17 17 17 16 17
17 19 20 20 21 22 21 22 22 22 23 24 24 23 20 20 21 21 20 19 18 18 18 19 20 20 20 20 20 19 18 18 18 18 18 17 17 17 16 15 15 16
15 19 21 20 21 21 20 21 21 20 21 23 24 22 20 20 21 21 20 19 18 18 17 19 20 21 21 20 20 19 18 18 18 17 17 16 15 15 14 14 14 14
16 20 22 21 20 20 19 20 20 20 20 21 22 21 20 20 20 20 20 19 19 20 19 19 20 21 20 20 20 19 18 18 18 17 16 15 14 13 12 12 12 12
16 19 20 21 21 19 19 19 19 20 20 19 20 20 20 21 21 21 21 20 19 20 19 18 20 21 19 19 18 19 19 18 17 17 16 15 13 12 11 11 11 11
17 18 17 18 21 21 21 21 20 21 20 19 19 20 21 22 22 22 22 21 19 19 18 18 20 20 17 17 18 18 18 17 16 16 15 14 13 12 11 11 12 11
19 18 14 17 22 22 23 23 22 21 20 19 20 21 22 22 23 23 23 21 20 18 18 18 19 18 16 16 17 17 16 15 15 15 14 13 13 13 12 11 11 11
17 16 14 18 23 23 24 24 22 21 20 19 20 22 22 22 23 24 24 22 20 18 17 16 16 16 15 16 17 16 16 15 14 14 14 13 13 12 12 12 11 10
13 14 18 22 23 24 24 22 21 20 19 20 21 21 22 23 23 24 23 22 20 18 17 16 15 15 15 16 17 16 16 15 14 14 13 13 13 12 11 11 11 10
12 13 18 22 23 23 24 22 20 21 20 21 22 22 23 23 23 23 22 20 20 18 17 17 17 16 15 16 16 16 15 15 14 13 12 12 11 11 10 11 11 11
14 14 15 19 22 22 21 20 20 20 21 23 24 23 24 23 22 22 21 20 20 19 18 18 17 17 16 15 15 15 13 13 13 12 11 10 9 9 10 10 11 11
14 15 15 17 20 20 19 20 20 22 23 25 26 25 25 23 22 22 21 20 21 20 18 17 17 17 16 15 15 14 13 12 13 12 10 9 9 10 9 10 10 11
12 14 16 16 17 17 18 20 22 24 25 26 27 25 25 24 23 22 21 21 22 20 18 17 17 16 15 15 15 14 13 13 13 12 10 10 10 10 9 9 9 9
13 12 15 16 16 16 18 20 23 26 26 27 26 24 23 24 23 22 21 22 22 20 18 17 17 16 16 15 15 14 13 13 13 12 11 10 11 11 10 9 8 8
13 13 13 14 18 21 21 23 25 27 27 26 26 25 23 23 23 23 22 23 21 19 17 17 17 16 16 15 14 14 14 13 12 12 12 12 13 12 11 9 9 9
12 13 13 14 20 24 24 24 26 27 27 27 26 25 24 24 24 23 22 21 19 17 17 17 17 16 16 14 14 14 14 13 12 12 13 14 14 14 13 11 11 11
11 14 15 17 20 24 25 25 27 28 27 27 27 25 23 22 23 23 22 19 17 16 17 17 17 17 16 15 14 14 13 13 13 14 15 15 16 16 15 14 13 14
12 13 17 18 20 23 24 26 27 28 27 26 26 25 24 22 22 23 21 19 18 17 17 17 17 16 16 15 15 14 12 12 13 15 16 17 17 17 17 17 18 19
14 12 15 18 21 22 22 23 26 27 27 27 26 25 25 23 22 23 21 20 20 18 18 18 17 16 16 15 15 14 13 13 14 16 17 18 19 19 19 21 22 23
17 11 9 13 18 19 19 20 23 24 24 25 25 24 24 23 23 23 22 22 20 18 18 18 17 16 16 16 16 15 14 14 16 18 20 21 21 22 23 24 23 22
19 12 5 1 5 11 16 19 19 20 20 20 21 22 22 22 23 24 23 22 21 19 19 18 17 17 16 15 16 16 15 17 19 20 22 23 23 24 24 23 22 21
21 16 11 8 7 7 12 17 18 18 17 18 19 20 19 19 21 23 23 22 21 20 20 19 18 17 16 15 16 17 18 19 21 22 23 23 22 22 21 21 20 19
22 18 16 13 12 13 14 16 19 19 17 17 17 18 18 17 18 23 24 22 22 21 20 20 18 17 16 15 15 17 19 21 23 23 23 22 19 18 19 19 19 18
23 20 18 16 16 17 16 17 20 22 20 19 19 20 20 18 19 23 25 23 22 21 20 20 19 17 18 18 17 18 20 22 24 24 23 23 21 18 17 17 18 17
24 22 20 18 18 20 21 20 22 23 23 23 23 23 23 20 20 24 26 23 22 22 22 21 20 19 19 19 19 20 21 22 25 25 25 25 24 22 19 17 17 17
25 23 22 20 19 19 22 24 25 25 26 26 26 26 26 23 22 24 25 23 22 23 22 21 21 20 19 20 20 20 21 22 24 25 26 25 23 23 21 19 17 17

ECMWFNIL_925_spd_087.txt.gz
Wind_Speed
12 13 13 14 13 12 13 16 16 15 15 14 13 13 13 15 16 17 19 19 17 17 19 20 17 15 13 12 12 12 13 14 16 18 18 16 16 19 19 17 16 17
11 12 12 13 11 10 11 14 15 15 16 15 14 13 13 13 14 16 18 19 19 18 17 18 18 15 11 11 12 12 13 13 16 19 18 17 18 19 19 17 16 15
14 14 14 12 11 10 10 10 12 14 16 17 15 14 13 11 12 15 18 20 21 19 17 17 18 16 14 14 15 14 14 14 16 19 20 19 18 17 16 16 15 14
15 14 13 12 12 12 11 11 12 13 15 16 15 12 10 9 11 14 16 19 20 18 18 19 19 19 19 18 17 15 16 16 15 17 19 17 16 15 15 14 12 12
13 12 11 12 14 13 13 14 14 13 14 15 13 11 10 10 11 13 14 16 17 16 18 19 19 20 20 19 17 16 17 18 17 18 17 15 13 14 14 13 12 12
11 12 13 14 15 15 14 14 14 13 15 15 13 11 12 11 11 12 13 14 15 16 18 19 19 19 20 19 19 18 18 17 17 18 16 13 12 12 13 14 13 13
12 14 16 15 14 13 12 13 14 13 13 13 13 11 12 12 12 12 13 13 16 19 20 20 20 20 21 21 20 19 17 15 15 16 14 13 14 13 13 14 14 13
13 14 16 16 13 12 11 12 13 12 10 11 12 12 12 12 12 12 13 13 15 18 19 20 21 21 21 21 19 18 17 16 15 13 12 14 15 15 14 14 14 14
13 12 15 16 15 14 13 13 15 15 14 12 12 13 12 13 13 13 14 14 14 16 18 19 20 21 21 20 18 17 18 18 16 13 13 14 14 14 14 14 15 15
13 12 13 16 16 15 14 15 18 19 17 13 11 11 13 13 13 14 15 16 17 16 16 19 21 21 20 18 16 16 17 17 16 14 13 14 14 13 14 14 16 16
14 13 13 14 16 17 16 17 20 21 17 13 11 12 14 14 14 14 15 19 20 18 18 20 21 20 19 16 15 16 16 17 16 14 13 14 13 14 14 15 16 16
15 14 14 15 15 16 16 17 19 20 19 15 13 15 16 16 15 14 15 19 21 21 21 21 20 19 19 17 17 17 17 17 16 15 14 14 13 13 14 14 15 15
17 16 16 17 16 16 15 15 16 18 18 17 16 16 16 18 19 19 19 20 21 22 22 21 20 19 19 17 16 16 15 15 15 14 13 13 13 13 13 13 14 14
19 18 17 17 17 16 15 14 14 16 17 17 18 17 16 19 22 22 21 22 22 23 23 21 20 20 18 17 15 15 15 14 14 14 13 12 12 12 13 13 13 13
20 20 18 17 16 15 15 14 15 17 17 17 18 18 16 18 22 23 23 24 24 23 23 22 21 19 18 16 16 15 15 14 15 15 14 12 11 11 12 13 13 13
20 20 20 18 17 16 15 14 15 17 17 17 18 17 15 17 22 24 24 26 26 24 23 22 21 19 16 15 15 15 15 15 15 16 16 14 13 13 14 14 15 14
20 20 19 17 16 16 15 14 14 15 16 15 15 18 19 20 23 24 25 25 24 23 23 22 20 18 16 15 15 15 15 15 16 16 16 16 15 16 16 16 15 15
22 20 18 16 15 15 15 14 14 13 13 14 16 19 21 21 22 23 23 23 23 23 22 22 20 18 16 15 14 14 14 14 16 16 17 17 18 18 17 17 16 16
23 20 18 17 16 16 15 14 13 12 13 16 17 19 19 20 23 23 21 22 23 23 22 21 20 17 15 14 13 13 13 14 15 16 17 18 19 19 19 18 18 18
23 20 18 18 17 16 13 10 8 9 11 14 16 18 18 20 22 23 22 21 21 21 21 20 19 17 14 13 13 13 13 14 16 18 19 19 20 20 19 19 20 21
23 20 18 18 17 15 11 6 3 1 6 10 14 18 19 20 20 20 21 21 19 20 21 20 18 16 13 13 13 14 14 15 17 19 20 20 19 20 20 22 24 24
22 20 19 18 17 16 12 8 7 7 8 10 14 17 17 17 16 16 18 19 20 20 20 19 18 15 14 14 15 15 15 16 19 21 22 22 21 22 23 25 27 27
22 19 18 17 18 18 15 12 9 10 11 11 14 17 17 15 14 15 15 15 18 18 17 17 18 16 15 16 17 16 16 18 21 22 22 23 22 22 24 26 27 25
22 20 17 17 17 17 15 13 11 12 12 13 15 19 20 18 17 18 16 15 17 18 17 18 20 18 17 18 18 17 17 19 23 24 23 23 21 20 20 22 23 21
20 20 18 17 16 15 14 13 14 15 15 16 19 23 23 21 20 20 20 19 20 20 20 21 22 20 18 18 18 18 18 21 24 26 26 26 24 23 21 19 20 21
21 18 18 19 18 17 15 14 15 18 20 21 23 26 27 25 24 23 23 23 23 22 22 23 22 20 17 15 16 18 19 21 24 26 27 27 27 27 26 23 21 21

ECMWFNIL_925_spd_093.txt.gz
Wind_Speed
11 12 13 13 12 13 13 13 14 15 15 16 17 16 14 14 15 16 16 17 17 16 16 16 19 20 20 19 20 19 16 15 14 12 12 13 13 15 16 17 18 18
11 12 13 13 14 14 14 15 16 16 16 17 19 19 18 16 16 16 16 16 16 16 16 18 20 19 19 20 19 19 18 16 15 14 14 13 15 17 17 17 19 18
11 12 13 14 15 16 16 17 18 16 16 17 20 21 20 19 19 18 18 18 17 15 16 19 19 18 20 20 18 17 18 16 14 15 16 15 17 18 18 17 18 18
12 13 13 14 15 16 17 18 18 17 16 17 17 18 21 21 21 20 19 20 18 16 17 18 19 19 20 19 18 17 18 17 16 16 15 15 17 18 18 18 19 20
13 14 14 15 15 16 18 18 18 17 16 17 16 16 19 21 20 20 21 21 19 19 19 19 19 21 21 19 19 18 19 20 17 15 14 15 17 18 19 19 18 20
14 15 15 15 15 17 19 19 19 18 16 17 17 17 18 19 19 21 24 23 20 20 21 19 19 21 20 20 19 18 19 19 16 16 17 17 18 18 17 18 18 19
15 15 15 16 16 17 18 19 19 19 17 15 15 17 21 21 21 22 24 25 23 20 18 17 19 20 21 20 19 18 18 18 18 19 18 18 19 18 18 21 20 20
16 15 15 16 17 17 18 18 19 19 17 15 15 17 20 23 22 22 23 26 25 20 17 17 18 20 21 21 21 20 19 18 20 21 18 18 20 20 23 24 22 20
15 15 15 16 17 17 18 18 19 19 17 15 16 16 17 20 21 21 23 25 24 21 19 18 18 21 22 22 22 21 20 19 22 22 20 21 22 23 25 25 24 24
15 15 15 16 16 17 18 18 19 20 18 16 17 17 17 18 19 21 21 21 23 24 19 15 16 21 24 24 24 22 20 19 22 22 22 23 22 22 23 24 25 24
16 16 16 17 17 18 18 19 19 19 18 17 18 18 17 16 17 19 21 21 22 22 20 18 18 19 21 22 22 21 19 19 21 22 22 22 20 20 22 23 23 21
17 17 17 17 18 18 19 20 20 19 19 18 18 18 17 15 15 18 21 20 20 21 20 18 16 18 20 19 18 19 18 17 19 20 20 20 19 20 23 22 20 19
18 17 17 18 18 19 19 20 21 19 19 19 18 18 17 17 17 19 20 19 21 22 19 16 15 18 20 18 16 15 15 17 19 20 19 19 18 20 22 21 19 18
18 17 17 18 19 18 18 20 21 21 20 19 18 17 17 18 18 18 19 18 20 20 18 16 18 19 18 18 16 15 16 17 17 18 18 18 17 17 18 17 16 15
17 17 17 18 19 19 19 20 21 22 21 20 20 19 17 16 16 18 20 17 14 14 15 15 16 17 18 18 17 16 16 15 15 16 17 16 15 14 14 13 12 13
16 17 18 18 18 19 20 21 21 21 21 21 21 20 19 17 15 17 19 17 12 11 13 14 12 14 16 16 15 16 15 14 14 15 16 16 16 15 13 11 11 13
17 17 18 18 18 19 20 21 22 21 21 22 21 21 20 18 17 17 17 16 14 11 13 14 13 13 14 14 17 17 15 14 14 14 15 17 17 16 16 14 13 13
18 18 18 18 19 20 20 21 22 21 21 23 23 22 21 18 16 17 16 15 14 11 13 14 14 13 13 14 18 18 15 13 14 13 15 18 17 17 18 16 16 14
18 18 19 19 19 20 20 21 22 21 22 23 23 23 21 19 17 15 14 13 11 9 11 13 13 14 16 16 16 16 14 12 12 11 13 16 16 17 18 16 17 16
19 18 19 19 20 20 20 21 22 22 21 21 22 23 22 20 18 16 14 11 9 8 9 10 11 13 17 18 16 15 13 11 11 11 13 15 15 16 16 16 16 18
20 19 18 19 20 20 21 21 22 22 21 20 21 21 20 18 16 14 13 12 9 6 5 7 10 13 16 18 17 15 14 12 10 10 13 14 14 13 13 12 10 14
20 19 19 19 20 20 21 21 22 21 20 19 19 19 18 18 16 14 12 10 8 5 1 3 8 10 12 15 15 14 13 11 10 10 11 10 8 8 7 5 5 9
19 19 19 19 19 20 20 20 20 20 19 19 19 19 19 18 16 15 13 11 9 7 5 2 1 3 8 11 12 11 10 9 8 8 7 8 10 10 8 4 3 4
17 18 19 19 19 19 19 19 19 19 19 18 17 17 18 18 16 16 17 17 15 13 10 8 8 5 4 7 6 6 7 5 5 9 12 13 14 13 10 9 9 9
16 16 17 19 19 18 18 17 18 18 18 17 15 16 17 18 18 19 21 23 22 19 16 15 15 13 10 9 7 5 6 6 6 11 14 14 15 17 16 15 15 14
16 15 15 17 19 19 18 17 16 17 18 17 15 15 16 18 18 19 22 24 25 25 24 22 21 18 14 11 8 6 7 7 8 12 14 15 17 18 20 20 18 18

ECMWFNIL_925_spd_096.txt.gz
Wind_Speed
12 12 13 14 14 15 15 15 15 13 13 14 14 15 18 21 21 21 19 18 18 20 22 23 23 23 23 22 22 22 24 25 27 28 26 27 29 28 27 26 24 23
11 12 13 14 15 15 16 16 17 17 16 16 16 16 17 18 20 21 21 20 19 19 21 22 23 23 23 23 22 22 23 24 25 27 25 26 29 29 28 27 25 23
12 14 15 15 15 16 16 17 17 18 18 18 18 18 18 18 18 19 21 22 21 19 19 21 23 24 23 22 21 22 23 24 24 27 27 25 27 29 28 26 25 23
14 15 15 16 16 16 17 17 17 18 19 20 19 19 19 18 18 16 17 19 20 19 19 21 23 24 24 23 21 22 24 23 23 25 27 25 25 28 28 25 23 24
15 14 14 16 16 17 18 18 18 19 20 21 20 20 19 19 18 17 16 16 16 18 19 21 22 23 22 22 22 23 25 24 22 22 23 25 26 28 27 26 25 25
14 15 15 15 16 18 19 19 19 20 20 21 21 21 20 19 18 18 17 16 15 17 19 20 21 21 21 22 23 24 24 24 23 22 22 23 25 26 27 28 27 26
15 16 16 16 17 19 19 19 21 21 21 21 21 21 21 19 18 17 17 17 17 19 19 18 19 21 22 22 24 25 24 22 20 21 21 20 21 22 25 26 26 24
15 16 17 18 18 19 19 20 21 22 22 22 21 21 21 20 19 18 17 16 16 18 19 18 18 20 21 20 22 24 24 22 19 20 20 19 19 20 21 23 23 22
16 17 17 18 18 18 19 20 21 21 22 22 22 22 21 20 20 19 17 15 14 17 19 18 18 19 19 17 18 20 23 22 20 20 21 19 19 19 19 20 21 21
18 17 17 18 18 17 17 18 21 21 21 22 22 22 22 20 19 19 17 15 15 17 19 19 18 17 17 16 17 19 20 20 19 19 20 20 19 18 19 19 19 21
18 18 18 18 18 19 17 17 19 21 21 22 22 22 22 21 20 18 16 15 14 16 18 20 19 16 15 16 18 19 19 20 21 19 18 20 19 18 19 20 19 21
18 18 18 19 20 21 19 18 20 21 21 22 23 23 23 21 20 19 16 15 15 16 17 19 18 16 15 16 17 18 19 22 23 20 17 19 18 17 19 20 19 21
18 18 18 19 20 20 20 20 21 22 22 22 22 23 24 23 22 21 19 17 18 18 18 17 16 17 16 16 16 17 18 21 22 20 18 18 17 18 20 20 18 18
18 17 18 19 19 19 20 21 21 22 21 22 22 23 23 23 24 23 21 19 18 19 19 17 17 19 19 19 18 17 17 19 19 19 18 17 16 17 21 21 18 16
17 17 19 19 19 19 21 21 22 22 21 21 22 22 22 23 23 23 22 20 19 20 20 18 18 19 19 19 19 18 18 18 19 18 18 17 14 16 20 19 18 16
18 18 19 19 19 20 21 22 22 22 22 22 23 24 23 23 23 22 22 22 20 19 20 19 18 18 18 17 18 18 18 19 19 18 16 15 13 16 19 17 15 16
18 18 19 19 21 22 22 22 23 23 23 22 22 25 25 24 24 24 23 23 22 20 20 20 19 19 19 16 15 18 19 20 19 17 15 14 14 15 16 14 14 16
18 18 19 20 21 22 22 22 22 23 23 23 22 24 26 25 25 25 24 23 22 22 22 19 14 16 18 16 15 17 20 20 18 16 14 14 14 14 14 13 14 14
19 19 19 20 21 21 22 22 23 23 23 23 22 23 24 25 26 27 26 24 23 22 21 17 11 10 13 15 16 17 18 18 14 11 11 12 12 13 13 12 12 13
19 20 20 21 21 21 22 22 23 23 23 23 22 23 24 25 26 27 26 26 24 21 20 18 15 13 12 11 14 14 13 13 10 8 9 10 10 9 9 8 8 11
19 20 20 21 22 22 22 22 22 23 23 22 22 22 23 24 26 26 26 26 26 22 19 19 17 17 15 10 10 9 8 9 6 5 4 5 5 5 7 8 8 10
19 19 20 21 22 22 21 22 22 22 22 22 22 22 22 24 25 26 27 28 27 23 20 19 18 17 15 11 9 6 6 6 3 5 8 10 9 8 8 8 7 7
18 17 19 21 22 22 21 21 22 22 21 21 22 22 23 24 25 26 27 30 30 27 24 22 20 17 12 8 4 3 5 6 7 11 15 16 16 14 12 11 9 9
17 16 18 20 21 22 22 22 22 22 21 20 21 22 22 23 23 24 27 31 33 32 30 27 24 20 15 10 9 9 11 13 16 18 19 19 20 20 19 17 15 14
19 17 17 19 20 20 21 21 21 22 22 21 21 21 21 22 23 25 27 30 33 35 35 33 29 26 23 20 19 18 17 17 18 20 21 21 22 24 23 21 20 18
24 23 22 22 20 19 20 21 22 23 23 23 22 21 21 23 24 25 26 29 31 34 37 37 34 31 27 23 21 19 18 16 15 19 22 23 24 26 26 24 22 21

ECMWFNIL_925_spd_102.txt.gz
Wind_Speed
6 5 5 6 6 8 9 9 9 9 10 10 11 11 11 12 12 13 15 15 17 18 19 19 19 19 20 21 23 25 27 28 28 28 29 29 28 28 29 30 31 31
5 5 6 7 7 8 9 10 10 10 11 11 11 11 11 11 11 12 14 16 17 18 19 19 19 19 19 19 21 23 25 26 27 28 28 28 28 27 27 29 29 31
6 5 6 7 8 9 10 10 10 10 11 11 11 11 12 12 12 11 13 15 17 17 18 18 19 20 20 19 19 21 23 24 26 27 26 27 27 27 27 28 29 31
6 5 4 6 7 8 9 12 13 13 12 12 11 11 11 12 12 11 12 15 17 17 17 18 19 20 19 19 20 21 22 24 25 25 25 25 26 26 27 26 26 29
8 8 7 8 9 9 10 12 13 14 14 14 13 13 12 12 12 12 12 13 15 16 17 18 18 18 18 19 20 21 23 24 25 24 24 25 25 25 25 25 24 26
10 11 12 12 13 12 12 12 13 15 16 16 15 13 13 12 12 12 12 13 13 14 16 17 18 18 17 18 19 21 22 23 24 23 24 25 25 25 24 23 24 25
14 16 15 15 15 14 14 15 16 16 16 16 15 14 14 13 11 11 11 12 12 13 14 16 18 18 18 18 19 20 21 22 22 23 24 26 25 25 24 23 24 25
17 18 17 16 17 17 17 17 17 17 15 16 17 17 17 15 12 11 11 11 12 14 14 14 16 17 18 18 19 20 21 21 22 22 24 25 25 24 23 22 24 26
19 19 18 18 19 19 19 19 18 18 16 16 17 18 18 17 16 14 12 11 12 14 14 14 15 16 16 18 18 19 20 21 22 21 22 23 24 24 24 23 24 26
21 20 20 20 20 20 20 19 19 19 18 18 18 19 18 17 18 17 15 12 12 14 15 15 16 15 16 17 18 19 20 21 21 20 20 22 23 24 24 23 23 25
22 21 22 22 21 20 20 20 20 19 19 19 19 20 19 18 19 19 17 15 14 15 15 15 15 15 15 15 15 16 17 19 21 20 20 21 22 24 24 22 23 25
22 22 22 22 21 21 20 20 21 21 20 20 21 20 18 19 21 20 19 18 17 16 15 14 14 14 14 14 14 15 15 17 19 20 21 21 22 23 24 24 23 24
22 21 21 20 20 20 20 20 21 22 22 22 22 21 19 21 23 22 20 19 18 17 16 14 14 15 15 15 15 15 15 16 17 19 21 21 21 22 23 24 23 22
20 20 19 20 20 20 20 21 22 22 22 22 23 23 23 25 26 24 23 22 20 20 19 16 15 16 16 17 17 16 15 16 17 18 19 19 21 22 23 22 21 21
19 19 20 20 20 21 21 21 22 22 22 23 23 23 24 26 26 26 26 26 24 24 22 20 18 16 16 19 20 19 16 15 15 16 17 18 20 22 23 22 21 21
20 21 21 21 21 21 20 21 22 22 23 23 23 23 24 25 27 27 27 27 27 26 25 24 21 19 19 21 20 18 17 16 14 15 16 16 18 20 21 21 20 19
22 22 22 22 21 21 20 20 21 22 23 23 23 24 24 25 26 27 27 27 27 27 27 26 24 24 25 24 19 16 15 15 14 14 14 15 16 17 18 19 19 18
22 23 22 21 20 20 20 20 21 21 23 23 24 24 25 25 26 27 28 28 28 29 29 28 29 30 28 24 19 14 11 12 12 10 10 11 12 13 15 16 16 17
20 23 24 22 21 20 20 21 21 22 22 23 23 24 25 26 27 29 30 29 28 31 32 31 33 33 28 23 18 11 8 9 8 6 5 6 7 8 11 13 14 15
20 22 23 24 23 23 22 22 22 22 22 22 23 25 26 27 28 30 32 31 31 32 34 35 35 33 28 24 18 11 7 6 5 2 2 2 3 4 5 7 9 11
21 21 22 23 24 24 24 24 23 23 22 21 22 24 25 26 27 29 32 33 34 35 36 38 37 32 27 23 18 13 9 8 8 6 3 3 3 3 3 3 5 6
20 21 21 22 23 24 25 25 24 23 22 21 22 23 24 25 26 28 31 33 36 37 37 39 38 33 27 24 20 16 14 14 14 13 12 11 10 8 7 5 4 4
19 20 21 22 23 24 24 24 24 23 23 22 22 23 24 25 26 28 31 34 37 38 38 39 40 36 29 25 22 20 19 19 20 20 19 19 17 15 13 10 7 6
18 19 21 22 23 24 24 23 23 23 23 23 23 22 22 23 24 28 32 35 37 37 38 39 42 39 32 27 25 23 23 24 24 25 25 24 24 23 20 17 14 10
20 20 20 21 22 23 23 23 23 22 23 23 23 23 22 23 25 28 32 34 36 37 39 41 43 41 36 31 27 26 27 28 29 30 30 29 29 29 28 27 23 18
22 21 21 21 22 23 24 24 24 24 24 25 25 24 24 25 26 29 31 33 35 38 40 41 42 43 41 36 32 30 30 31 32 32 30 30 32 34 34 34 32 28

ECMWFNIL_925_spd_105.txt.gz
Wind_Speed
5 6 7 6 6 6 6 7 7 7 7 8 8 10 11 12 13 13 14 13 13 12 13 14 16 17 19 20 22 22 22 22 23 24 26 27 27 28 29 29 29 29
6 5 5 5 5 5 5 5 6 6 6 7 9 10 11 13 14 14 15 15 15 14 14 14 15 16 18 19 21 22 23 23 24 24 25 26 27 27 28 28 29 29
3 3 3 4 4 4 5 5 6 6 8 8 10 12 13 14 15 15 15 16 17 17 16 15 14 14 16 18 20 22 23 23 23 23 24 26 26 27 28 28 29 29
5 4 4 4 4 4 5 5 7 9 10 11 12 13 14 15 16 16 16 16 16 17 16 16 15 14 15 17 19 21 22 22 22 22 24 27 27 28 28 28 28 29
7 6 6 6 6 5 5 7 9 11 12 13 13 13 14 15 15 15 15 15 15 15 15 14 15 14 15 16 18 20 21 22 21 21 24 26 27 27 27 27 28 28
9 9 8 8 7 6 7 9 11 12 13 13 12 12 13 14 14 13 14 13 13 12 12 13 13 14 15 17 18 19 20 21 21 22 23 24 25 26 26 26 27 27
10 9 8 8 8 9 10 11 12 11 11 11 11 11 13 14 14 13 13 13 11 10 12 13 13 14 15 16 17 18 19 21 21 21 22 24 24 25 25 25 26 26
10 9 9 9 9 11 12 12 12 12 11 11 11 11 12 13 14 15 14 13 11 11 12 12 13 15 17 17 16 17 18 19 20 20 21 22 24 24 24 23 24 26
11 10 10 11 11 13 14 14 14 14 14 14 14 12 11 12 14 14 14 12 11 11 12 13 14 15 16 17 16 16 16 17 18 19 20 22 24 25 24 22 22 24
12 12 12 12 13 14 15 15 15 16 16 16 17 16 15 15 16 15 14 13 13 13 13 13 14 14 15 17 17 16 16 16 17 18 21 22 24 25 24 22 22 23
13 13 13 13 14 14 14 15 16 16 16 17 18 18 18 18 18 17 16 16 16 16 15 16 15 14 15 17 19 18 17 18 18 20 22 23 24 24 23 23 23 24
13 13 12 13 13 13 14 15 15 16 16 17 17 17 18 19 19 19 19 19 19 18 18 18 17 16 15 17 20 21 20 19 19 20 21 23 23 22 22 22 22 23
12 12 11 12 12 13 14 14 15 16 16 17 17 17 17 19 20 20 21 21 20 20 20 19 18 18 17 16 19 23 24 23 21 20 21 22 22 21 21 20 21 22
11 11 11 11 11 12 14 14 15 16 16 17 18 18 18 19 20 20 21 22 22 22 21 19 20 21 19 18 22 25 26 24 22 21 21 22 21 20 20 20 20 21
11 11 11 10 11 12 13 14 15 16 17 18 19 19 19 20 20 20 21 22 23 23 22 22 23 23 21 22 25 25 24 23 22 21 21 21 20 18 18 18 19 19
10 11 11 11 11 12 13 14 15 16 18 19 20 20 21 22 23 22 23 23 24 25 25 26 27 26 24 23 22 20 19 19 18 18 18 19 19 18 17 18 19 19
12 12 13 13 12 12 13 14 15 17 19 20 21 21 22 24 25 25 25 25 25 27 27 28 29 28 24 23 20 16 14 13 13 15 15 16 16 16 16 17 18 18
16 15 15 14 13 13 13 13 15 17 19 21 21 21 22 26 27 27 27 27 27 29 29 30 30 28 24 22 20 17 14 12 12 12 12 12 12 12 12 13 14 15
16 16 16 15 14 14 14 14 16 18 19 20 20 21 23 26 28 28 28 28 29 30 31 32 32 28 24 21 20 18 15 13 12 12 12 11 12 13 13 13 13 14
14 15 15 15 15 15 15 16 17 18 19 20 20 21 23 25 26 28 28 29 29 30 31 33 33 28 24 21 20 19 17 16 16 15 15 16 16 16 17 16 15 15
13 14 15 15 15 16 16 17 18 19 19 20 20 21 22 24 25 26 27 28 28 29 31 34 34 29 25 22 21 20 20 20 20 21 21 22 22 22 21 19 17 15
13 14 14 15 16 17 18 19 19 19 20 20 21 21 23 24 25 25 26 27 28 29 31 34 37 33 28 24 22 22 24 25 25 26 27 28 28 27 26 25 22 18
13 13 15 16 17 18 19 19 19 20 21 21 22 23 24 24 24 25 26 27 29 30 30 33 38 38 33 29 25 24 27 29 29 30 31 31 31 31 30 29 28 25
14 15 16 17 18 19 19 20 20 21 22 23 24 24 24 23 24 24 26 27 30 31 31 32 36 39 37 34 31 29 30 30 30 31 32 32 32 33 33 32 30 27
17 18 18 19 19 19 20 20 21 22 23 24 25 24 24 24 24 25 26 27 29 30 32 33 35 37 38 37 34 33 32 32 32 33 33 32 32 33 35 35 33 31
21 20 20 20 20 21 21 21 22 23 24 25 25 25 25 25 26 27 28 29 29 30 32 33 34 35 36 36 36 35 34 34 34 34 31 31 32 33 34 36 36 35

ECMWFNIL_925_spd_108.txt.gz
Wind_Speed
6 7 7 8 8 9 9 9 9 9 10 11 12 13 14 15 15 17 17 17 17 17 16 16 15 16 15 15 14 14 14 15 16 15 16 16 17 17 17 17 18 19
6 6 6 6 6 7 7 7 8 9 10 11 13 14 15 15 16 17 18 19 19 18 17 17 16 16 16 16 15 14 14 15 16 15 16 17 16 16 17 18 18 19
7 6 6 5 5 5 6 7 8 9 11 13 14 15 16 16 17 17 17 17 18 17 16 15 15 15 15 15 15 14 14 15 15 15 17 18 16 16 17 18 19 19
7 7 7 6 6 6 7 8 10 12 13 14 15 16 16 16 17 17 17 17 16 16 15 14 14 14 14 15 15 15 14 15 15 15 16 18 18 17 17 18 19 19
8 8 7 7 8 9 10 11 13 14 15 15 15 15 15 16 17 18 17 17 16 15 14 12 13 14 15 16 17 16 15 15 16 16 16 17 18 18 18 18 19 20
8 8 8 9 10 12 13 14 15 15 15 15 15 15 15 16 17 17 17 17 16 14 13 13 13 14 16 17 18 18 18 18 18 17 16 17 19 19 18 17 17 20
8 9 10 11 12 13 14 15 15 15 16 16 16 15 16 16 17 17 17 16 16 15 15 15 15 16 16 16 17 19 21 20 20 18 16 16 17 18 18 16 18 21
9 10 11 12 12 14 15 15 16 17 16 17 18 17 18 18 18 18 17 17 17 17 17 17 17 18 17 17 17 20 21 21 21 20 19 18 17 17 18 19 21 22
10 10 11 12 13 15 16 16 17 17 17 18 18 18 19 18 18 19 19 19 19 20 20 20 20 20 20 19 18 19 22 23 22 21 22 21 20 19 19 21 23 24
11 11 11 12 14 15 16 16 16 16 16 16 16 17 18 19 19 20 21 21 21 21 22 22 22 22 22 21 20 20 21 24 25 24 23 23 23 23 22 21 23 24
11 11 12 12 13 14 14 15 15 15 16 16 16 17 18 19 20 20 21 22 22 22 22 22 22 22 22 21 21 20 20 23 26 26 26 25 25 25 24 22 22 23
11 10 11 11 13 14 14 14 15 16 16 16 17 18 19 19 20 21 21 22 22 22 22 23 23 23 23 23 24 24 24 25 26 27 26 25 24 24 24 23 23 22
11 10 10 11 12 12 12 13 15 16 17 17 18 19 19 19 20 21 21 22 23 23 24 25 25 24 24 25 26 27 27 27 26 25 24 23 21 20 20 21 21 20
10 9 10 10 10 10 11 13 15 17 17 18 19 20 20 20 21 21 22 23 24 24 26 27 27 26 27 27 26 27 27 26 24 22 21 20 19 18 18 19 19 18
9 10 10 10 10 11 12 13 15 16 17 19 20 21 21 22 23 23 23 25 26 27 28 29 28 28 27 26 24 25 24 22 20 18 18 18 18 18 17 17 16 16
11 11 11 11 12 13 13 14 15 16 18 20 21 22 23 23 25 25 25 27 29 29 30 30 30 29 27 24 22 21 20 19 18 18 17 17 16 16 16 15 14 14
13 13 13 13 13 14 14 14 15 17 19 21 22 23 24 25 26 27 27 28 30 32 32 32 32 29 26 24 22 19 18 18 19 18 16 15 15 16 17 17 16 15
14 13 14 14 14 15 14 14 16 19 20 21 22 23 24 26 27 27 28 29 31 33 34 34 32 29 25 23 22 20 18 18 19 18 18 18 20 21 22 22 20 19
14 14 15 15 15 15 14 15 17 20 21 22 22 23 24 26 27 28 28 29 30 31 34 35 34 30 25 22 21 21 20 20 20 20 21 22 24 25 25 25 25 23
14 15 16 16 16 15 16 17 19 20 21 21 22 23 24 26 27 27 29 29 29 30 32 36 36 31 26 23 21 22 23 23 23 23 24 26 27 27 27 27 27 26
14 15 16 17 17 17 18 19 20 21 22 22 22 23 23 24 25 26 27 28 29 30 31 35 36 32 28 25 24 24 25 25 25 26 27 29 30 31 30 30 29 28
14 15 16 17 18 19 20 21 21 21 21 21 22 23 24 24 25 26 26 27 29 30 31 33 35 33 29 27 26 26 26 26 26 27 29 30 32 33 33 32 31 30
14 15 17 17 19 20 21 20 20 21 21 21 22 24 25 25 25 25 26 27 29 30 31 32 34 34 31 28 27 27 27 27 27 28 29 30 31 32 32 32 32 31
15 16 17 18 19 20 20 20 20 21 21 22 23 24 25 25 26 26 27 28 29 30 30 31 33 33 32 30 28 27 28 28 27 28 29 29 29 30 31 32 32 32
17 17 18 20 20 20 19 20 21 21 21 22 23 24 24 25 26 27 28 29 29 29 30 31 32 32 32 31 30 29 29 29 28 28 28 27 27 29 31 33 33 33
19 20 20 21 20 20 20 20 21 21 22 23 23 24 24 25 26 27 28 29 30 30 31 31 31 31 30 30 31 30 29 30 30 30 28 27 28 29 31 32 33 34

ECMWFNIL_925_spd_111.txt.gz
Wind_Speed
7 6 7 7 8 8 8 8 8 9 9 8 8 7 7 8 10 10 11 12 12 12 11 10 9 9 9 9 9 11 13 14 15 15 15 16 16 16 18 18 17 18
8 7 8 8 8 8 8 9 10 10 10 9 8 7 7 9 10 10 11 12 13 13 11 9 8 8 9 10 9 9 11 13 14 14 15 16 17 17 18 18 18 18
9 9 9 9 9 9 10 10 11 11 9 8 8 8 8 9 9 10 11 11 11 11 10 8 8 8 8 9 10 10 11 12 14 15 15 16 16 17 18 19 20 19
10 10 10 10 10 10 11 10 10 9 8 8 8 8 8 9 9 10 11 11 10 10 10 10 9 8 8 10 11 13 14 14 15 16 17 18 16 16 18 19 19 19
11 11 11 11 11 11 11 10 9 8 8 9 9 9 9 9 9 10 11 11 10 11 11 11 11 10 10 10 11 12 13 14 14 15 17 18 18 17 17 17 18 19
10 11 11 11 12 12 11 10 9 8 9 9 9 9 9 10 10 11 11 12 12 12 12 11 12 12 12 12 12 11 12 13 13 13 14 16 18 18 17 17 18 18
11 11 12 12 12 12 11 10 9 9 9 9 9 9 10 11 12 12 12 13 13 13 13 13 14 14 13 13 13 13 13 13 13 14 14 15 16 16 16 16 17 18
11 11 11 11 11 11 11 10 10 9 9 9 10 10 10 12 12 12 12 13 13 14 14 15 15 15 14 14 15 15 15 14 13 14 15 16 15 15 17 17 17 17
10 10 10 10 10 11 11 10 9 9 9 10 10 10 11 12 12 11 12 13 14 15 15 16 17 16 15 15 16 17 18 17 16 15 15 16 16 16 17 17 17 17
9 9 9 10 10 10 10 10 10 9 10 11 11 11 11 11 11 12 12 13 14 15 15 17 19 18 18 18 19 20 20 20 19 17 16 15 15 15 15 15 15 16
9 9 9 10 10 10 11 10 10 11 11 12 12 12 11 11 11 12 13 13 14 15 15 17 19 19 20 22 23 23 22 21 20 18 16 15 14 13 13 13 13 14
10 9 9 9 10 10 10 10 11 12 12 12 12 12 12 12 12 13 14 14 15 15 16 17 19 21 23 24 24 24 23 21 20 18 16 15 14 13 13 13 13 14
10 9 9 9 9 9 10 10 12 13 13 12 12 12 13 13 14 14 14 14 15 16 16 17 19 22 25 25 25 25 22 19 19 18 18 16 14 13 13 13 14 15
9 9 9 9 9 9 10 11 12 13 12 12 12 13 14 14 14 15 14 14 15 15 16 17 19 23 26 25 25 23 19 16 16 17 17 15 14 13 13 13 13 13
10 10 9 9 10 10 11 12 12 12 12 13 13 13 14 13 14 14 14 15 16 15 16 18 21 25 25 24 23 22 18 15 15 16 17 17 17 17 16 17 16 15
11 11 10 10 10 11 11 12 12 12 13 13 14 14 14 15 17 16 15 15 16 16 16 19 23 25 23 21 21 20 18 16 17 18 18 19 20 20 21 23 22 20
12 12 11 10 11 11 11 12 12 12 13 14 14 14 16 19 20 17 15 15 15 16 17 18 22 25 23 20 20 20 18 17 17 18 19 21 22 21 23 25 25 26
12 13 12 11 11 11 11 11 12 14 15 16 17 17 18 19 17 14 14 15 15 17 18 18 22 25 23 20 19 20 19 17 17 17 18 20 21 21 23 24 25 26
13 13 12 11 11 11 13 14 14 16 18 19 20 19 18 16 15 14 16 16 16 18 18 20 25 27 24 21 20 21 21 17 16 17 16 17 19 20 22 25 25 25
14 13 12 12 11 14 17 17 16 18 20 19 19 18 16 15 16 16 17 17 18 19 18 21 28 29 25 22 21 21 21 17 15 17 17 17 19 19 20 23 24 23
14 13 13 13 14 16 18 18 17 18 19 18 17 16 15 15 15 16 17 18 19 19 18 22 28 29 25 23 21 21 20 16 15 17 18 19 20 20 20 22 22 22
15 14 13 13 14 16 17 17 18 18 18 18 18 18 17 16 16 17 18 18 19 19 19 21 28 30 27 23 22 21 18 16 16 17 18 19 20 20 20 22 24 24
15 15 14 14 16 18 18 19 19 19 20 19 18 19 20 18 17 18 19 19 19 20 19 20 26 31 28 25 24 21 18 17 17 17 17 18 19 20 20 22 26 28
16 16 17 17 18 19 19 20 20 21 21 20 18 18 19 18 18 19 20 21 22 21 20 20 24 29 29 27 26 23 19 17 18 18 17 17 19 20 20 21 26 31
18 18 18 19 20 20 20 21 21 20 21 22 20 19 18 18 19 20 20 22 24 24 24 22 21 26 29 28 27 25 21 17 17 16 17 19 21 22 24 24 25 28
19 19 20 20 20 21 21 21 21 22 23 23 22 20 21 20 20 20 21 22 24 25 25 24 23 24 26 27 27 27 24 21 18 16 16 20 21 21 23 25 24 26

ECMWFNIL_925_spd_114.txt.gz
Wind_Speed
4 4 3 3 3 3 2 2 2 2 2 2 2 3 3 4 5 6 6 6 7 7 7 7 7 8 8 9 9 10 10 11 12 13 14 15 16 17 18 18 18 19
6 5 5 4 4 3 3 3 3 2 2 2 3 3 3 4 5 5 6 6 6 6 6 6 6 7 8 8 9 10 10 11 12 12 14 15 16 17 18 18 19 19
7 7 7 6 4 4 4 3 3 3 3 3 4 4 4 4 5 6 6 6 6 6 7 7 7 8 8 8 9 10 10 11 12 12 13 15 15 16 17 17 18 19
8 7 7 6 5 5 4 4 4 4 5 5 5 5 5 5 5 6 7 7 7 7 8 8 9 9 9 9 9 9 10 11 12 13 14 14 15 15 17 17 17 19
8 7 6 6 6 5 6 6 6 7 7 7 7 6 6 7 7 7 8 8 8 9 9 9 10 10 10 10 9 9 10 11 11 13 14 15 15 15 16 16 16 18
7 7 7 6 7 7 7 8 8 8 8 8 7 7 7 7 8 8 9 9 9 10 10 10 11 11 10 10 10 10 11 11 11 12 14 15 15 15 15 15 16 17
8 7 7 7 8 8 9 9 9 9 8 8 8 8 8 8 8 9 10 10 10 11 11 11 11 11 11 11 11 11 11 11 11 12 14 14 14 15 15 15 15 16
8 8 8 8 9 9 10 9 9 9 9 8 8 8 9 9 9 10 10 10 10 11 11 11 11 11 11 11 11 12 12 12 11 12 13 13 13 14 14 14 14 15
8 9 9 9 9 10 11 10 10 9 9 9 9 9 9 9 10 10 10 10 10 11 11 11 12 12 11 12 11 12 12 12 12 12 12 12 13 13 13 13 13 14
10 10 10 9 10 11 11 11 10 9 10 10 10 9 9 9 10 10 10 10 10 11 11 11 12 12 12 12 12 12 12 12 12 12 12 12 13 13 13 13 13 14
10 11 11 10 10 10 11 11 10 10 10 10 10 10 10 10 10 10 10 11 11 11 11 11 12 13 13 13 13 12 12 12 12 12 12 12 12 12 13 13 13 14
10 11 11 10 9 10 10 10 11 11 11 10 10 10 10 11 11 11 11 12 12 12 11 11 12 13 14 14 14 13 12 11 12 12 12 12 12 12 13 13 13 14
10 11 10 9 9 9 10 10 11 12 11 10 10 11 11 11 11 12 12 12 13 12 12 12 12 13 14 15 15 13 12 12 12 12 12 11 11 12 12 12 13 13
10 10 10 9 9 9 10 11 12 11 11 11 11 11 12 12 12 12 12 13 13 13 12 12 13 14 17 18 16 12 11 12 11 12 12 11 11 12 13 13 13 13
9 10 9 9 9 10 10 11 12 12 12 12 12 12 12 12 12 12 13 13 13 13 13 13 13 15 17 18 16 12 10 11 11 12 13 13 14 14 14 15 15 14
9 9 9 9 9 10 11 11 12 12 12 13 12 13 13 12 12 12 13 14 14 15 15 14 15 17 15 14 14 11 10 10 10 12 14 15 16 16 16 16 17 16
9 9 9 9 9 10 11 11 12 12 12 12 12 13 13 12 13 13 13 14 14 16 17 16 17 19 16 13 14 13 11 11 12 13 14 15 16 17 18 18 18 18
10 9 9 9 10 10 11 11 12 12 12 12 12 13 13 13 13 13 14 14 14 16 18 18 19 20 17 15 16 16 16 14 13 14 15 16 17 18 19 20 20 20
10 10 10 10 10 10 11 11 12 12 12 12 12 13 13 13 13 13 14 14 14 16 18 20 23 22 18 17 18 19 18 17 15 15 16 17 18 20 21 22 22 21
10 10 10 10 10 10 11 12 12 12 12 12 12 12 12 12 13 13 14 14 14 15 17 21 26 24 18 17 19 19 19 17 16 16 17 18 19 20 22 23 23 22
10 10 11 11 11 11 12 12 13 13 13 12 12 12 12 12 13 14 14 14 14 14 16 20 26 25 21 19 19 19 18 16 16 16 16 17 18 19 21 23 23 22
10 11 11 12 12 12 13 13 13 13 13 12 12 11 12 13 14 14 15 15 14 14 15 18 24 26 23 20 20 19 17 15 15 16 16 17 18 18 19 21 23 24
11 12 12 13 13 13 13 13 13 13 13 12 11 11 12 13 14 14 15 15 15 15 15 17 21 25 24 21 19 18 16 15 14 15 16 16 17 18 17 19 22 25
12 13 13 13 13 13 13 13 13 13 12 11 11 12 12 13 13 14 15 16 16 17 16 16 19 23 23 21 19 17 16 15 14 14 16 16 16 17 17 17 21 24
13 13 13 13 13 13 13 13 13 12 11 10 11 12 13 13 14 14 15 15 16 17 17 16 18 23 25 23 21 19 17 15 14 14 16 16 16 17 18 18 19 22
14 13 14 14 13 13 13 12 12 11 11 11 12 12 13 13 14 14 15 15 15 17 19 18 17 20 24 25 24 21 19 17 16 15 15 16 16 17 18 19 19 20

ECMWFNIL_925_spd_117.txt.gz
Wind_Speed
6 5 5 5 6 5 4 4 3 3 3 2 2 2 3 3 5 6 6 7 7 7 7 8 8 9 9 9 10 11 11 11 11 12 13 13 14 15 16 17 17 18
6 7 7 6 6 5 5 4 4 3 3 3 3 3 3 4 5 6 6 7 7 7 7 8 8 8 8 9 10 10 10 11 12 12 13 14 14 15 15 16 16 17
8 8 8 7 6 6 5 5 4 4 4 4 4 4 4 4 5 6 6 6 6 7 8 8 8 8 8 9 9 9 10 11 11 12 13 14 14 15 15 16 16 16
9 8 8 7 7 6 5 5 5 5 5 5 5 5 5 5 5 6 6 6 6 7 8 8 8 9 9 9 9 10 10 11 11 12 13 14 14 15 16 16 17 17
8 7 7 7 6 6 6 6 6 6 6 6 6 6 6 5 6 6 6 6 7 7 7 8 8 9 9 10 10 10 11 11 11 13 14 14 14 14 15 15 16 17
7 7 7 7 7 7 7 8 7 7 7 6 6 6 6 6 6 7 7 7 7 8 8 8 9 9 9 10 10 10 11 11 12 13 14 14 14 14 14 15 16 17
8 8 7 7 7 8 8 8 8 7 7 6 7 7 7 7 7 8 8 7 8 8 9 9 10 10 10 10 10 11 11 11 12 13 14 14 14 14 15 15 16 16
9 8 8 8 8 8 8 8 8 7 7 7 7 7 7 7 8 8 8 8 9 9 10 10 11 11 11 11 11 12 12 12 12 13 14 14 14 15 15 15 16 16
10 9 9 9 9 9 8 8 8 8 7 8 8 8 8 8 9 9 9 9 10 10 10 11 11 11 11 11 12 12 13 12 13 14 14 14 14 15 15 15 16 16
11 10 10 10 10 9 9 9 8 8 8 8 9 9 9 9 9 10 10 10 11 11 11 11 12 12 12 12 12 12 12 13 13 14 14 14 14 14 15 15 15 16
11 11 10 10 10 10 9 9 9 9 9 9 9 9 9 9 10 10 11 11 11 11 11 12 12 13 14 14 13 12 12 13 13 14 14 14 14 14 14 15 15 15
11 11 11 10 10 9 9 9 10 10 10 10 10 10 10 10 10 11 11 11 11 11 12 12 13 14 14 15 14 13 12 13 13 13 14 14 14 15 15 15 16 16
11 11 11 10 10 10 9 10 10 11 11 10 10 10 11 11 11 11 11 11 11 11 12 13 13 14 14 15 14 13 12 13 13 13 14 14 14 15 16 16 16 16
11 11 11 11 10 10 10 10 11 11 11 11 11 11 11 11 11 11 11 11 11 12 12 14 14 14 15 16 15 14 13 13 13 14 15 15 15 15 16 16 16 15
11 11 12 11 11 11 11 11 11 12 11 11 11 11 11 11 11 11 11 12 12 12 13 14 14 15 16 17 16 15 14 13 13 14 15 15 16 16 16 16 16 16
12 12 12 12 11 11 11 11 11 11 11 11 11 11 11 11 11 11 11 12 13 14 14 14 14 15 16 16 15 15 15 13 13 14 15 16 17 17 17 18 17 17
12 12 12 12 12 12 11 11 11 10 11 11 11 11 11 11 11 11 11 12 13 15 15 15 14 15 16 15 14 14 15 14 13 14 14 15 17 17 18 19 19 19
12 12 12 12 12 11 11 11 10 10 11 11 11 11 11 11 11 11 11 11 12 14 16 16 14 14 14 14 14 14 15 14 13 13 14 15 16 17 18 20 21 21
12 12 12 12 11 11 11 10 10 10 10 10 10 11 11 11 12 11 11 11 11 13 15 17 16 13 12 13 12 13 15 15 13 13 14 15 16 17 18 20 22 22
12 12 12 12 11 11 11 10 10 10 10 10 10 10 11 11 11 11 11 10 11 11 13 16 18 14 12 12 11 11 13 14 13 12 13 15 16 17 18 20 23 24
12 12 12 12 11 11 11 11 11 10 10 10 10 10 11 11 11 11 11 11 11 12 12 15 19 15 12 12 12 11 12 13 12 12 13 14 15 16 16 18 22 23
12 13 13 12 12 12 11 11 11 11 11 11 11 11 11 11 11 11 12 11 12 13 13 16 21 19 14 11 12 12 13 12 11 12 14 14 15 16 16 16 20 22
13 13 13 13 12 12 11 11 11 11 11 10 10 11 10 11 12 12 12 12 12 13 13 16 22 24 18 14 13 13 13 13 12 13 14 14 15 16 16 16 19 23
13 14 13 13 13 12 12 12 11 11 11 10 9 10 10 11 12 13 13 13 13 13 14 15 21 26 22 17 15 15 14 14 13 13 14 14 14 15 15 15 18 22
13 13 13 13 13 12 12 12 11 10 10 9 9 10 10 11 11 11 12 13 14 15 15 14 18 24 25 21 18 16 17 15 13 13 14 14 14 14 14 15 16 18
13 14 14 13 13 13 12 11 10 10 9 9 9 10 10 10 10 10 11 11 13 15 16 16 15 19 24 25 22 19 17 15 13 13 14 14 13 14 14 14 15 15

ECMWFNIL_925_spd_123.txt.gz
Wind_Speed
21 21 22 22 21 21 20 20 19 19 19 16 15 14 11 10 9 9 9 9 10 10 8 9 10 10 11 12 12 12 12 12 13 15 15 15 16 17 18 19 19 20
22 21 21 21 20 19 18 18 17 17 17 15 13 12 11 11 11 12 11 10 9 9 9 11 12 11 11 12 12 12 12 13 14 15 16 17 17 18 19 19 19 19
20 19 19 19 18 18 17 16 16 15 15 13 12 11 12 13 12 11 9 9 9 10 11 12 11 10 10 11 12 12 13 15 14 14 16 17 17 18 18 18 19 19
18 18 17 17 17 17 17 16 15 13 11 11 11 11 12 13 11 9 8 8 9 11 11 11 11 12 12 12 12 13 14 15 15 15 16 17 18 18 18 18 18 19
18 18 18 18 18 17 16 16 15 14 13 13 12 12 12 11 10 9 9 9 10 11 11 11 12 13 12 13 14 14 15 15 16 16 16 18 19 19 18 19 19 20
18 19 19 19 18 17 16 16 15 15 16 15 13 12 11 10 10 10 10 10 10 10 10 11 11 12 13 13 14 15 15 16 17 17 18 19 19 20 20 19 19 20
20 20 20 20 20 20 20 19 18 17 16 15 14 12 11 11 11 11 11 11 11 10 9 9 9 11 12 13 14 16 16 17 18 18 19 18 18 21 20 18 18 20
21 21 21 20 21 21 21 20 18 16 14 14 13 13 13 13 13 13 12 11 10 9 8 8 9 11 12 13 15 18 18 17 17 17 18 18 19 21 21 18 18 19
21 20 20 19 19 18 18 18 16 15 14 14 15 15 14 13 13 13 12 10 10 10 10 11 13 14 15 15 16 18 18 17 17 18 19 19 19 21 21 20 18 19
20 19 19 19 19 17 16 16 16 16 16 17 17 16 15 14 14 12 11 10 10 13 15 16 16 16 16 16 16 17 18 17 17 19 21 21 21 22 22 21 20 19
17 17 18 18 18 17 16 17 17 16 16 17 17 17 18 18 16 13 12 13 15 18 20 20 18 17 16 17 16 17 18 17 17 19 22 23 22 22 22 23 22 21
14 15 15 16 16 17 17 18 17 17 17 18 17 18 18 18 17 15 14 16 19 21 21 20 19 18 17 16 16 18 19 19 18 20 22 23 23 23 22 24 24 24
15 15 15 16 18 17 17 17 17 16 15 14 16 18 18 17 17 16 15 17 20 21 20 19 19 18 17 17 18 20 21 20 20 21 22 23 25 25 24 24 24 24
17 17 16 16 17 17 18 19 17 15 15 17 20 21 20 18 17 16 17 19 20 20 19 19 19 20 19 19 19 20 22 21 20 20 20 21 24 25 25 25 24 24
17 17 17 17 17 18 20 19 17 16 19 22 23 22 21 19 17 17 17 18 18 18 18 19 20 20 19 19 20 21 21 21 20 20 19 20 23 25 25 25 25 26
17 18 18 18 18 19 19 18 18 19 20 21 22 21 19 17 16 17 18 17 16 17 17 18 19 19 19 19 19 18 18 18 19 19 19 21 25 26 25 25 26 27
19 19 19 18 18 18 19 20 20 19 19 20 21 19 18 16 17 18 17 16 15 16 17 18 18 17 18 18 17 16 17 17 18 18 19 23 27 26 26 26 27 27
20 20 20 20 20 20 21 21 20 18 18 19 20 19 20 20 20 18 17 16 16 16 17 18 17 16 16 16 16 17 17 18 19 18 19 24 28 27 27 27 27 28
21 21 21 21 21 22 21 21 20 20 19 18 19 20 21 21 20 18 18 18 18 18 18 17 16 15 13 15 16 16 16 18 18 17 18 23 27 27 27 27 27 28
21 21 21 21 21 22 21 20 22 22 21 20 20 20 21 20 20 19 19 20 20 20 18 17 16 14 12 14 16 16 16 17 18 17 17 20 23 25 25 26 27 27
21 22 23 22 22 21 20 21 22 23 21 20 22 23 22 21 21 21 21 21 21 20 18 17 17 16 15 16 17 17 16 15 16 17 18 19 20 22 23 24 25 26
23 23 23 22 21 21 21 22 24 24 23 23 24 25 24 22 21 21 23 23 22 20 19 18 17 17 18 17 16 16 16 16 15 15 17 19 20 20 21 21 23 24
23 23 23 22 21 23 24 25 24 23 22 22 23 22 22 20 19 20 22 25 24 22 20 19 18 17 17 16 15 15 17 18 18 17 18 20 20 19 19 20 22 24
23 23 22 22 22 24 25 24 22 20 20 20 20 21 21 20 20 21 23 26 27 26 23 21 19 17 15 15 15 16 17 19 20 21 20 20 19 18 19 21 23 24
23 22 22 23 24 24 24 23 23 22 22 22 22 24 24 24 24 25 25 26 26 26 25 25 23 20 17 16 17 17 18 19 20 20 19 17 16 18 19 21 22 24
24 22 22 25 25 24 23 24 23 23 23 22 21 21 22 22 22 22 23 23 23 23 23 24 25 23 21 19 18 18 18 18 19 18 16 14 14 16 18 19 21 23